Time,TemperatureF,DewpointF,PressureIn,WindDirection,WindDirectionDegrees,WindSpeedMPH,WindSpeedGustMPH,Humidity,HourlyPrecipIn,Conditions,Clouds,dailyrainin,SoftwareType,DateUTC
2013-07-04 00:00:00,61.1,57.2,30.00,NNE,32,0.0,0.0,87,0.00,,,0.00,VWS V14.01,2013-07-04 04:00:00,
2013-07-04 00:01:00,61.1,57.2,30.00,NNE,32,0.0,0.0,87,0.00,,,0.00,VWS V14.01,2013-07-04 04:01:00,
2013-07-04 00:02:00,61.1,57.2,30.00,NNE,32,0.0,0.0,87,0.00,,,0.00,VWS V14.01,2013-07-04 04:02:00,
2013-07-04 00:03:00,61.1,57.2,30.00,NNE,32,0.0,0.0,87,0.00,,,0.00,VWS V14.01,2013-07-04 04:03:00,
2013-07-04 00:04:00,61.0,57.1,30.00,NNE,32,0.0,0.0,87,0.00,,,0.00,VWS V14.01,2013-07-04 04:04:00,
2013-07-04 00:05:00,61.0,57.1,30.00,NNE,32,0.0,0.0,87,0.00,,,0.00,VWS V14.01,2013-07-04 04:05:00,
2013-07-04 00:06:00,61.0,57.1,30.01,NNE,32,0.0,0.0,87,0.00,,,0.00,VWS V14.01,2013-07-04 04:06:00,
2013-07-04 00:07:00,61.0,57.4,30.01,NNE,32,0.0,0.0,88,0.00,,,0.00,VWS V14.01,2013-07-04 04:07:00,
2013-07-04 00:08:00,61.0,57.4,30.01,NNE,32,0.0,0.0,88,0.00,,,0.00,VWS V14.01,2013-07-04 04:08:00,
2013-07-04 00:09:00,60.9,57.3,30.01,NNE,32,0.0,0.0,88,0.00,,,0.00,VWS V14.01,2013-07-04 04:09:00,
2013-07-04 00:10:00,60.9,57.3,30.01,NNE,32,0.0,0.0,88,0.00,,,0.00,VWS V14.01,2013-07-04 04:10:00,
2013-07-04 00:11:00,60.9,57.6,30.01,NNE,32,0.0,0.0,89,0.00,,,0.00,VWS V14.01,2013-07-04 04:11:00,
2013-07-04 00:12:00,60.9,57.6,30.01,NNE,32,0.0,0.0,89,0.00,,,0.00,VWS V14.01,2013-07-04 04:12:00,
2013-07-04 00:13:00,60.9,57.6,30.01,NNE,32,0.0,0.0,89,0.00,,,0.00,VWS V14.01,2013-07-04 04:13:00,
2013-07-04 00:14:00,60.9,57.6,30.01,NNE,32,0.0,0.0,89,0.00,,,0.00,VWS V14.01,2013-07-04 04:14:00,
2013-07-04 00:15:00,60.9,57.6,30.00,NNE,32,0.0,0.0,89,0.00,,,0.00,VWS V14.01,2013-07-04 04:15:00,
2013-07-04 00:16:00,60.9,57.6,30.00,NNE,32,0.0,0.0,89,0.00,,,0.00,VWS V14.01,2013-07-04 04:16:00,
2013-07-04 00:17:00,60.9,57.3,30.00,NNE,32,0.0,0.0,88,0.00,,,0.00,VWS V14.01,2013-07-04 04:17:00,
2013-07-04 00:18:00,60.9,57.3,30.00,NNE,32,0.0,0.0,88,0.00,,,0.00,VWS V14.01,2013-07-04 04:18:00,
2013-07-04 00:19:00,60.8,57.2,30.01,NNE,32,0.0,0.0,88,0.00,,,0.00,VWS V14.01,2013-07-04 04:19:00,
2013-07-04 00:20:00,60.9,57.3,30.00,NNE,32,0.0,0.0,88,0.00,,,0.00,VWS V14.01,2013-07-04 04:20:00,
2013-07-04 00:21:00,60.8,57.2,30.00,NNE,32,0.0,0.0,88,0.00,,,0.00,VWS V14.01,2013-07-04 04:21:00,
2013-07-04 00:22:00,60.8,57.2,30.00,NNE,32,0.0,0.0,88,0.00,,,0.00,VWS V14.01,2013-07-04 04:22:00,
2013-07-04 00:23:00,60.8,57.2,30.00,NNE,32,0.0,0.0,88,0.00,,,0.00,VWS V14.01,2013-07-04 04:23:00,
2013-07-04 00:24:00,60.8,57.2,30.00,NNE,32,0.0,0.0,88,0.00,,,0.00,VWS V14.01,2013-07-04 04:24:00,
2013-07-04 00:25:00,60.8,57.2,30.00,NNE,32,0.0,0.0,88,0.00,,,0.00,VWS V14.01,2013-07-04 04:25:00,
2013-07-04 00:26:00,60.8,57.2,30.00,NNE,32,0.0,0.0,88,0.00,,,0.00,VWS V14.01,2013-07-04 04:26:00,
2013-07-04 00:27:00,60.8,57.5,30.01,NNE,32,0.0,0.0,89,0.00,,,0.00,VWS V14.01,2013-07-04 04:27:00,
2013-07-04 00:28:00,60.8,57.5,30.01,NNE,32,0.0,0.0,89,0.00,,,0.00,VWS V14.01,2013-07-04 04:28:00,
2013-07-04 00:29:00,60.8,57.5,30.01,NNE,32,0.0,0.0,89,0.00,,,0.00,VWS V14.01,2013-07-04 04:29:00,
2013-07-04 00:30:00,60.8,57.5,30.00,NNE,32,0.0,0.0,89,0.00,,,0.00,VWS V14.01,2013-07-04 04:30:00,
2013-07-04 00:31:00,60.9,58.0,30.00,NNE,32,0.0,0.0,90,0.00,,,0.00,VWS V14.01,2013-07-04 04:31:00,
2013-07-04 00:32:00,60.9,58.0,30.01,NNE,32,0.0,0.0,90,0.00,,,0.00,VWS V14.01,2013-07-04 04:32:00,
2013-07-04 00:33:00,60.9,58.0,30.01,NNE,32,0.0,0.0,90,0.00,,,0.00,VWS V14.01,2013-07-04 04:33:00,
2013-07-04 00:34:00,60.9,58.0,30.01,NNE,32,0.0,0.0,90,0.00,,,0.00,VWS V14.01,2013-07-04 04:34:00,
2013-07-04 00:35:00,60.9,58.0,30.01,NNE,32,0.0,0.0,90,0.00,,,0.00,VWS V14.01,2013-07-04 04:35:00,
2013-07-04 00:36:00,60.9,58.0,30.01,NNE,32,0.0,0.0,90,0.00,,,0.00,VWS V14.01,2013-07-04 04:36:00,
2013-07-04 00:37:00,61.0,58.0,30.01,NNE,32,0.0,0.0,90,0.00,,,0.00,VWS V14.01,2013-07-04 04:37:00,
2013-07-04 00:38:00,60.9,58.0,30.01,NNE,32,0.0,0.0,90,0.00,,,0.00,VWS V14.01,2013-07-04 04:38:00,
2013-07-04 00:39:00,61.0,58.0,30.01,NNE,32,0.0,0.0,90,0.00,,,0.00,VWS V14.01,2013-07-04 04:39:00,
2013-07-04 00:40:00,61.0,58.0,30.01,NNE,32,1.0,0.0,90,0.00,,,0.00,VWS V14.01,2013-07-04 04:40:00,
2013-07-04 00:41:00,61.1,58.2,30.01,SW,221,0.0,0.0,90,0.00,,,0.00,VWS V14.01,2013-07-04 04:41:00,
2013-07-04 00:42:00,61.2,58.2,30.01,SSW,196,0.0,0.0,90,0.00,,,0.00,VWS V14.01,2013-07-04 04:42:00,
2013-07-04 00:43:00,61.2,58.2,30.01,SSW,196,0.0,0.0,90,0.00,,,0.00,VWS V14.01,2013-07-04 04:43:00,
2013-07-04 00:44:00,61.3,58.3,30.01,SSW,192,0.0,0.0,90,0.00,,,0.00,VWS V14.01,2013-07-04 04:44:00,
2013-07-04 00:45:00,61.4,58.1,30.01,SSW,192,0.0,0.0,89,0.00,,,0.00,VWS V14.01,2013-07-04 04:45:00,
2013-07-04 00:46:00,61.4,57.8,30.01,SSW,192,0.0,0.0,88,0.00,,,0.00,VWS V14.01,2013-07-04 04:46:00,
2013-07-04 00:47:00,61.6,58.0,30.01,SSW,193,0.0,0.0,88,0.00,,,0.00,VWS V14.01,2013-07-04 04:47:00,
2013-07-04 00:48:00,61.6,58.0,30.01,SSW,193,0.0,0.0,88,0.00,,,0.00,VWS V14.01,2013-07-04 04:48:00,
2013-07-04 00:49:00,61.6,58.0,30.01,SSW,193,0.0,0.0,88,0.00,,,0.00,VWS V14.01,2013-07-04 04:49:00,
2013-07-04 00:50:00,61.7,58.1,30.01,SSW,193,0.0,0.0,88,0.00,,,0.00,VWS V14.01,2013-07-04 04:50:00,
2013-07-04 00:51:00,61.7,58.1,30.01,SSW,192,0.0,0.0,88,0.00,,,0.00,VWS V14.01,2013-07-04 04:51:00,
2013-07-04 00:52:00,61.8,57.9,30.01,SSW,192,0.0,0.0,87,0.00,,,0.00,VWS V14.01,2013-07-04 04:52:00,
2013-07-04 00:53:00,61.8,57.9,30.01,SSW,192,0.0,0.0,87,0.00,,,0.00,VWS V14.01,2013-07-04 04:53:00,
2013-07-04 00:54:00,61.9,58.0,30.01,SSW,192,0.0,0.0,87,0.00,,,0.00,VWS V14.01,2013-07-04 04:54:00,
2013-07-04 00:55:00,62.0,58.1,30.01,SSW,193,0.0,0.0,87,0.00,,,0.00,VWS V14.01,2013-07-04 04:55:00,
2013-07-04 00:56:00,62.0,58.1,30.00,SSW,192,0.0,0.0,87,0.00,,,0.00,VWS V14.01,2013-07-04 04:56:00,
2013-07-04 00:57:00,62.0,58.1,30.00,SSW,193,0.0,0.0,87,0.00,,,0.00,VWS V14.01,2013-07-04 04:57:00,
2013-07-04 00:58:00,62.0,58.1,30.00,SSW,193,0.0,0.0,87,0.00,,,0.00,VWS V14.01,2013-07-04 04:58:00,
2013-07-04 00:59:00,62.1,58.2,30.01,SSW,193,0.0,0.0,87,0.00,,,0.00,VWS V14.01,2013-07-04 04:59:00,
2013-07-04 01:00:00,62.1,58.2,30.00,SSW,193,0.0,0.0,87,0.00,,,0.00,VWS V14.01,2013-07-04 05:00:00,
2013-07-04 01:01:00,62.1,58.2,30.00,SSW,193,0.0,0.0,87,0.00,,,0.00,VWS V14.01,2013-07-04 05:01:00,
2013-07-04 01:02:00,62.2,58.3,30.00,SSW,193,0.0,0.0,87,0.00,,,0.00,VWS V14.01,2013-07-04 05:02:00,
2013-07-04 01:03:00,62.2,58.3,30.00,SSW,193,0.0,0.0,87,0.00,,,0.00,VWS V14.01,2013-07-04 05:03:00,
2013-07-04 01:04:00,62.2,58.3,30.00,SSW,193,0.0,0.0,87,0.00,,,0.00,VWS V14.01,2013-07-04 05:04:00,
2013-07-04 01:05:00,62.2,58.3,30.00,SSW,193,0.0,0.0,87,0.00,,,0.00,VWS V14.01,2013-07-04 05:05:00,
2013-07-04 01:06:00,62.3,58.4,30.00,SSW,193,0.0,0.0,87,0.00,,,0.00,VWS V14.01,2013-07-04 05:06:00,
2013-07-04 01:07:00,62.3,58.4,30.00,SSW,193,0.0,0.0,87,0.00,,,0.00,VWS V14.01,2013-07-04 05:07:00,
2013-07-04 01:08:00,62.3,58.4,30.00,SSW,193,0.0,0.0,87,0.00,,,0.00,VWS V14.01,2013-07-04 05:08:00,
2013-07-04 01:09:00,62.3,58.4,30.00,SSW,193,0.0,0.0,87,0.00,,,0.00,VWS V14.01,2013-07-04 05:09:00,
2013-07-04 01:10:00,62.3,58.4,30.00,SSW,193,0.0,0.0,87,0.00,,,0.00,VWS V14.01,2013-07-04 05:10:00,
2013-07-04 01:11:00,62.4,58.8,30.00,SSW,193,0.0,0.0,88,0.00,,,0.00,VWS V14.01,2013-07-04 05:11:00,
2013-07-04 01:12:00,62.4,58.8,30.00,SSW,193,0.0,0.0,88,0.00,,,0.00,VWS V14.01,2013-07-04 05:12:00,
2013-07-04 01:13:00,62.4,58.8,30.00,SSW,193,0.0,0.0,88,0.00,,,0.00,VWS V14.01,2013-07-04 05:13:00,
2013-07-04 01:14:00,62.4,58.8,30.00,SSW,193,0.0,0.0,88,0.00,,,0.00,VWS V14.01,2013-07-04 05:14:00,
2013-07-04 01:15:00,62.4,59.1,30.00,SSW,193,0.0,0.0,89,0.00,,,0.00,VWS V14.01,2013-07-04 05:15:00,
2013-07-04 01:16:00,62.4,59.1,30.00,SSW,193,0.0,0.0,89,0.00,,,0.00,VWS V14.01,2013-07-04 05:16:00,
2013-07-04 01:17:00,62.4,59.1,30.00,SSW,193,0.0,0.0,89,0.00,,,0.00,VWS V14.01,2013-07-04 05:17:00,
2013-07-04 01:18:00,62.4,59.1,30.00,SSW,193,0.0,0.0,89,0.00,,,0.00,VWS V14.01,2013-07-04 05:18:00,
2013-07-04 01:19:00,62.5,59.2,30.00,SSW,193,0.0,0.0,89,0.00,,,0.00,VWS V14.01,2013-07-04 05:19:00,
2013-07-04 01:20:00,62.5,59.2,30.00,SSW,193,0.0,0.0,89,0.00,,,0.00,VWS V14.01,2013-07-04 05:20:00,
2013-07-04 01:21:00,62.5,59.2,30.00,SSW,193,0.0,0.0,89,0.00,,,0.00,VWS V14.01,2013-07-04 05:21:00,
2013-07-04 01:22:00,62.5,59.2,30.00,SSW,193,0.0,0.0,89,0.00,,,0.00,VWS V14.01,2013-07-04 05:22:00,
2013-07-04 01:23:00,62.5,59.2,30.00,SSW,193,0.0,0.0,89,0.00,,,0.00,VWS V14.01,2013-07-04 05:23:00,
2013-07-04 01:24:00,62.5,59.2,30.00,SSW,193,0.0,0.0,89,0.00,,,0.00,VWS V14.01,2013-07-04 05:24:00,
2013-07-04 01:25:00,62.5,59.5,30.00,SSW,193,0.0,0.0,90,0.00,,,0.00,VWS V14.01,2013-07-04 05:25:00,
2013-07-04 01:26:00,62.4,59.4,30.00,SSW,193,0.0,0.0,90,0.00,,,0.00,VWS V14.01,2013-07-04 05:26:00,
2013-07-04 01:27:00,62.4,59.4,30.00,SSW,193,0.0,0.0,90,0.00,,,0.00,VWS V14.01,2013-07-04 05:27:00,
2013-07-04 01:28:00,62.4,59.4,30.00,SSW,193,0.0,0.0,90,0.00,,,0.00,VWS V14.01,2013-07-04 05:28:00,
2013-07-04 01:29:00,62.4,59.4,30.00,SSW,193,0.0,0.0,90,0.00,,,0.00,VWS V14.01,2013-07-04 05:29:00,
2013-07-04 01:30:00,62.4,59.4,30.00,SSW,193,0.0,0.0,90,0.00,,,0.00,VWS V14.01,2013-07-04 05:30:00,
2013-07-04 01:31:00,62.4,59.4,30.00,SSW,192,0.0,0.0,90,0.00,,,0.00,VWS V14.01,2013-07-04 05:31:00,
2013-07-04 01:32:00,62.4,59.4,30.00,SSW,192,0.0,0.0,90,0.00,,,0.00,VWS V14.01,2013-07-04 05:32:00,
2013-07-04 01:33:00,62.4,59.4,30.00,SSW,192,0.0,0.0,90,0.00,,,0.00,VWS V14.01,2013-07-04 05:33:00,
2013-07-04 01:34:00,62.4,59.4,30.00,SSW,192,0.0,0.0,90,0.00,,,0.00,VWS V14.01,2013-07-04 05:34:00,
2013-07-04 01:35:00,62.4,59.4,30.00,SSW,192,0.0,0.0,90,0.00,,,0.00,VWS V14.01,2013-07-04 05:35:00,
2013-07-04 01:36:00,62.4,59.4,30.00,SSW,192,0.0,0.0,90,0.00,,,0.00,VWS V14.01,2013-07-04 05:36:00,
2013-07-04 01:37:00,62.4,59.4,30.00,SSW,192,0.0,0.0,90,0.00,,,0.00,VWS V14.01,2013-07-04 05:37:00,
2013-07-04 01:38:00,62.4,59.4,30.00,SSW,192,0.0,0.0,90,0.00,,,0.00,VWS V14.01,2013-07-04 05:38:00,
2013-07-04 01:39:00,62.4,59.4,30.00,SSW,192,0.0,0.0,90,0.00,,,0.00,VWS V14.01,2013-07-04 05:39:00,
2013-07-04 01:40:00,62.4,59.4,29.99,SSW,192,0.0,0.0,90,0.00,,,0.00,VWS V14.01,2013-07-04 05:40:00,
2013-07-04 01:41:00,62.4,59.4,29.99,SSW,192,0.0,0.0,90,0.00,,,0.00,VWS V14.01,2013-07-04 05:41:00,
2013-07-04 01:42:00,62.4,59.7,29.99,SSW,192,0.0,0.0,91,0.00,,,0.00,VWS V14.01,2013-07-04 05:42:00,
2013-07-04 01:43:00,62.4,59.7,29.99,SSW,192,0.0,0.0,91,0.00,,,0.00,VWS V14.01,2013-07-04 05:43:00,
2013-07-04 01:44:00,62.5,59.8,29.99,SSW,192,0.0,0.0,91,0.00,,,0.00,VWS V14.01,2013-07-04 05:44:00,
2013-07-04 01:45:00,62.4,59.4,29.99,SSW,192,0.0,0.0,90,0.00,,,0.00,VWS V14.01,2013-07-04 05:45:00,
2013-07-04 01:46:00,62.5,59.8,29.99,SSW,192,0.0,0.0,91,0.00,,,0.00,VWS V14.01,2013-07-04 05:46:00,
2013-07-04 01:47:00,62.5,59.5,29.99,SSW,192,0.0,0.0,90,0.00,,,0.00,VWS V14.01,2013-07-04 05:47:00,
2013-07-04 01:48:00,62.5,59.5,29.99,SSW,192,0.0,0.0,90,0.00,,,0.00,VWS V14.01,2013-07-04 05:48:00,
2013-07-04 01:49:00,62.5,59.5,29.99,SSW,192,0.0,0.0,90,0.00,,,0.00,VWS V14.01,2013-07-04 05:49:00,
2013-07-04 01:50:00,62.5,59.5,29.99,SSW,192,0.0,0.0,90,0.00,,,0.00,VWS V14.01,2013-07-04 05:50:00,
2013-07-04 01:51:00,62.5,59.5,29.99,SSW,192,0.0,0.0,90,0.00,,,0.00,VWS V14.01,2013-07-04 05:51:00,
2013-07-04 01:52:00,62.5,59.5,29.99,SSW,192,0.0,0.0,90,0.00,,,0.00,VWS V14.01,2013-07-04 05:52:00,
2013-07-04 01:53:00,62.5,59.5,29.99,SSW,192,0.0,0.0,90,0.00,,,0.00,VWS V14.01,2013-07-04 05:53:00,
2013-07-04 01:54:00,62.5,59.5,29.99,SSW,192,0.0,0.0,90,0.00,,,0.00,VWS V14.01,2013-07-04 05:54:00,
2013-07-04 01:55:00,62.6,59.6,30.00,SSW,192,0.0,0.0,90,0.00,,,0.00,VWS V14.01,2013-07-04 05:55:00,
2013-07-04 01:56:00,62.6,59.9,30.00,SE,145,0.0,0.0,91,0.00,,,0.00,VWS V14.01,2013-07-04 05:56:00,
2013-07-04 01:57:00,62.7,60.0,30.00,SE,144,0.0,0.0,91,0.00,,,0.00,VWS V14.01,2013-07-04 05:57:00,
2013-07-04 01:58:00,62.7,60.0,30.00,SE,144,0.0,0.0,91,0.00,,,0.00,VWS V14.01,2013-07-04 05:58:00,
2013-07-04 01:59:00,62.7,60.0,30.00,SE,145,0.0,0.0,91,0.00,,,0.00,VWS V14.01,2013-07-04 05:59:00,
2013-07-04 02:00:00,62.7,60.0,30.00,SE,142,0.0,0.0,91,0.00,,,0.00,VWS V14.01,2013-07-04 06:00:00,
2013-07-04 02:01:00,62.7,60.0,30.00,SE,142,0.0,0.0,91,0.00,,,0.00,VWS V14.01,2013-07-04 06:01:00,
2013-07-04 02:02:00,62.8,60.1,30.00,SE,142,0.0,0.0,91,0.00,,,0.00,VWS V14.01,2013-07-04 06:02:00,
2013-07-04 02:03:00,62.8,60.1,30.00,SE,142,0.0,0.0,91,0.00,,,0.00,VWS V14.01,2013-07-04 06:03:00,
2013-07-04 02:04:00,62.8,60.1,30.00,SE,142,0.0,0.0,91,0.00,,,0.00,VWS V14.01,2013-07-04 06:04:00,
2013-07-04 02:05:00,62.9,60.2,30.00,SE,142,0.0,0.0,91,0.00,,,0.00,VWS V14.01,2013-07-04 06:05:00,
2013-07-04 02:06:00,62.9,60.2,30.00,SE,133,0.0,0.0,91,0.00,,,0.00,VWS V14.01,2013-07-04 06:06:00,
2013-07-04 02:07:00,63.0,60.3,29.99,SE,133,0.0,0.0,91,0.00,,,0.00,VWS V14.01,2013-07-04 06:07:00,
2013-07-04 02:08:00,63.0,60.3,29.99,SE,133,0.0,0.0,91,0.00,,,0.00,VWS V14.01,2013-07-04 06:08:00,
2013-07-04 02:09:00,63.0,60.3,29.99,SE,133,0.0,0.0,91,0.00,,,0.00,VWS V14.01,2013-07-04 06:09:00,
2013-07-04 02:10:00,63.1,60.4,29.99,SE,132,0.0,0.0,91,0.00,,,0.00,VWS V14.01,2013-07-04 06:10:00,
2013-07-04 02:11:00,63.1,60.4,29.99,SE,132,0.0,0.0,91,0.00,,,0.00,VWS V14.01,2013-07-04 06:11:00,
2013-07-04 02:12:00,63.1,60.4,29.99,SE,132,0.0,0.0,91,0.00,,,0.00,VWS V14.01,2013-07-04 06:12:00,
2013-07-04 02:13:00,63.1,60.4,29.99,SE,132,0.0,0.0,91,0.00,,,0.00,VWS V14.01,2013-07-04 06:13:00,
2013-07-04 02:14:00,63.2,60.5,29.99,SE,132,0.0,0.0,91,0.00,,,0.00,VWS V14.01,2013-07-04 06:14:00,
2013-07-04 02:15:00,63.2,60.5,29.99,SE,132,0.0,0.0,91,0.00,,,0.00,VWS V14.01,2013-07-04 06:15:00,
2013-07-04 02:16:00,63.2,60.5,29.99,SE,132,0.0,0.0,91,0.00,,,0.00,VWS V14.01,2013-07-04 06:16:00,
2013-07-04 02:17:00,63.3,60.6,29.99,SE,134,0.0,0.0,91,0.00,,,0.00,VWS V14.01,2013-07-04 06:17:00,
2013-07-04 02:18:00,63.3,60.6,29.99,SE,134,0.0,0.0,91,0.00,,,0.00,VWS V14.01,2013-07-04 06:18:00,
2013-07-04 02:19:00,63.3,60.6,29.99,SE,134,0.0,0.0,91,0.00,,,0.00,VWS V14.01,2013-07-04 06:19:00,
2013-07-04 02:20:00,63.3,60.6,29.99,SE,134,0.0,0.0,91,0.00,,,0.00,VWS V14.01,2013-07-04 06:20:00,
2013-07-04 02:21:00,63.3,60.6,29.99,SE,134,0.0,0.0,91,0.00,,,0.00,VWS V14.01,2013-07-04 06:21:00,
2013-07-04 02:22:00,63.3,60.6,29.99,SE,134,0.0,0.0,91,0.00,,,0.00,VWS V14.01,2013-07-04 06:22:00,
2013-07-04 02:23:00,63.3,60.6,29.99,SE,134,0.0,0.0,91,0.00,,,0.00,VWS V14.01,2013-07-04 06:23:00,
2013-07-04 02:24:00,63.3,60.6,29.99,SSW,206,0.0,0.0,91,0.00,,,0.00,VWS V14.01,2013-07-04 06:24:00,
2013-07-04 02:25:00,63.4,60.7,29.99,SSW,195,0.0,0.0,91,0.00,,,0.00,VWS V14.01,2013-07-04 06:25:00,
2013-07-04 02:26:00,63.4,60.7,29.99,SSW,196,0.0,0.0,91,0.00,,,0.00,VWS V14.01,2013-07-04 06:26:00,
2013-07-04 02:27:00,63.4,60.7,29.98,SSW,196,0.0,0.0,91,0.00,,,0.00,VWS V14.01,2013-07-04 06:27:00,
2013-07-04 02:28:00,63.4,60.7,29.98,SSW,196,0.0,0.0,91,0.00,,,0.00,VWS V14.01,2013-07-04 06:28:00,
2013-07-04 02:29:00,63.4,60.4,29.99,SSW,196,0.0,0.0,90,0.00,,,0.00,VWS V14.01,2013-07-04 06:29:00,
2013-07-04 02:30:00,63.3,60.3,29.99,South,181,0.0,0.0,90,0.00,,,0.00,VWS V14.01,2013-07-04 06:30:00,
2013-07-04 02:31:00,63.3,60.3,29.99,South,180,0.0,0.0,90,0.00,,,0.00,VWS V14.01,2013-07-04 06:31:00,
2013-07-04 02:32:00,63.3,60.3,29.99,South,181,0.0,0.0,90,0.00,,,0.00,VWS V14.01,2013-07-04 06:32:00,
2013-07-04 02:33:00,63.3,60.3,29.99,South,181,0.0,0.0,90,0.00,,,0.00,VWS V14.01,2013-07-04 06:33:00,
2013-07-04 02:34:00,63.3,60.3,29.98,South,181,0.0,0.0,90,0.00,,,0.00,VWS V14.01,2013-07-04 06:34:00,
2013-07-04 02:35:00,63.3,60.3,29.99,South,181,0.0,0.0,90,0.00,,,0.00,VWS V14.01,2013-07-04 06:35:00,
2013-07-04 02:36:00,63.2,60.2,29.99,South,181,0.0,0.0,90,0.00,,,0.00,VWS V14.01,2013-07-04 06:36:00,
2013-07-04 02:37:00,63.2,60.2,29.99,South,181,0.0,0.0,90,0.00,,,0.00,VWS V14.01,2013-07-04 06:37:00,
2013-07-04 02:38:00,63.2,60.2,29.99,South,181,0.0,0.0,90,0.00,,,0.00,VWS V14.01,2013-07-04 06:38:00,
2013-07-04 02:39:00,63.1,60.1,29.99,South,181,0.0,0.0,90,0.00,,,0.00,VWS V14.01,2013-07-04 06:39:00,
2013-07-04 02:40:00,63.1,60.4,29.99,South,180,0.0,0.0,91,0.00,,,0.00,VWS V14.01,2013-07-04 06:40:00,
2013-07-04 02:41:00,63.1,60.1,29.99,South,180,0.0,0.0,90,0.00,,,0.00,VWS V14.01,2013-07-04 06:41:00,
2013-07-04 02:42:00,63.0,60.0,29.99,SSE,149,0.0,0.0,90,0.00,,,0.00,VWS V14.01,2013-07-04 06:42:00,
2013-07-04 02:43:00,63.0,60.0,29.99,SSE,149,0.0,0.0,90,0.00,,,0.00,VWS V14.01,2013-07-04 06:43:00,
2013-07-04 02:44:00,63.0,60.0,29.99,SSE,149,0.0,0.0,90,0.00,,,0.00,VWS V14.01,2013-07-04 06:44:00,
2013-07-04 02:45:00,62.9,59.9,29.98,SSE,149,0.0,0.0,90,0.00,,,0.00,VWS V14.01,2013-07-04 06:45:00,
2013-07-04 02:46:00,62.9,59.9,29.99,SSE,149,0.0,0.0,90,0.00,,,0.00,VWS V14.01,2013-07-04 06:46:00,
2013-07-04 02:47:00,62.8,59.8,29.98,South,190,0.0,0.0,90,0.00,,,0.00,VWS V14.01,2013-07-04 06:47:00,
2013-07-04 02:48:00,62.8,59.8,29.98,South,190,0.0,0.0,90,0.00,,,0.00,VWS V14.01,2013-07-04 06:48:00,
2013-07-04 02:49:00,62.8,60.1,29.98,South,189,0.0,0.0,91,0.00,,,0.00,VWS V14.01,2013-07-04 06:49:00,
2013-07-04 02:50:00,62.7,60.0,29.99,South,189,0.0,0.0,91,0.00,,,0.00,VWS V14.01,2013-07-04 06:50:00,
2013-07-04 02:51:00,62.7,60.0,29.99,South,189,0.0,0.0,91,0.00,,,0.00,VWS V14.01,2013-07-04 06:51:00,
2013-07-04 02:52:00,62.7,60.0,29.98,South,173,0.0,0.0,91,0.00,,,0.00,VWS V14.01,2013-07-04 06:52:00,
2013-07-04 02:53:00,62.7,60.0,29.98,South,173,0.0,0.0,91,0.00,,,0.00,VWS V14.01,2013-07-04 06:53:00,
2013-07-04 02:54:00,62.7,60.3,29.98,South,173,0.0,0.0,92,0.00,,,0.00,VWS V14.01,2013-07-04 06:54:00,
2013-07-04 02:55:00,62.7,60.7,29.98,South,173,0.0,0.0,93,0.00,,,0.00,VWS V14.01,2013-07-04 06:55:00,
2013-07-04 02:56:00,62.6,60.2,29.98,South,174,0.0,0.0,92,0.00,,,0.00,VWS V14.01,2013-07-04 06:56:00,
2013-07-04 02:57:00,62.6,60.2,29.98,South,173,0.0,0.0,92,0.00,,,0.00,VWS V14.01,2013-07-04 06:57:00,
2013-07-04 02:58:00,62.6,60.2,29.98,South,173,0.0,0.0,92,0.00,,,0.00,VWS V14.01,2013-07-04 06:58:00,
2013-07-04 02:59:00,62.5,59.8,29.98,South,173,0.0,0.0,91,0.00,,,0.00,VWS V14.01,2013-07-04 06:59:00,
2013-07-04 03:00:00,62.5,59.8,29.98,South,173,0.0,0.0,91,0.00,,,0.00,VWS V14.01,2013-07-04 07:00:00,
2013-07-04 03:01:00,62.5,59.8,29.98,South,173,0.0,0.0,91,0.00,,,0.00,VWS V14.01,2013-07-04 07:01:00,
2013-07-04 03:02:00,62.5,59.8,29.98,South,173,0.0,0.0,91,0.00,,,0.00,VWS V14.01,2013-07-04 07:02:00,
2013-07-04 03:03:00,62.5,59.8,29.98,South,173,0.0,0.0,91,0.00,,,0.00,VWS V14.01,2013-07-04 07:03:00,
2013-07-04 03:04:00,62.4,59.7,29.98,South,173,0.0,0.0,91,0.00,,,0.00,VWS V14.01,2013-07-04 07:04:00,
2013-07-04 03:05:00,62.4,59.7,29.98,South,173,0.0,0.0,91,0.00,,,0.00,VWS V14.01,2013-07-04 07:05:00,
2013-07-04 03:06:00,62.3,59.6,29.98,South,173,0.0,0.0,91,0.00,,,0.00,VWS V14.01,2013-07-04 07:06:00,
2013-07-04 03:07:00,62.3,59.6,29.98,South,173,0.0,0.0,91,0.00,,,0.00,VWS V14.01,2013-07-04 07:07:00,
2013-07-04 03:08:00,62.3,59.6,29.98,South,173,0.0,0.0,91,0.00,,,0.00,VWS V14.01,2013-07-04 07:08:00,
2013-07-04 03:09:00,62.2,59.8,29.98,South,173,0.0,0.0,92,0.00,,,0.00,VWS V14.01,2013-07-04 07:09:00,
2013-07-04 03:10:00,62.2,59.8,29.98,South,173,0.0,0.0,92,0.00,,,0.00,VWS V14.01,2013-07-04 07:10:00,
2013-07-04 03:11:00,62.2,59.8,29.98,South,173,0.0,0.0,92,0.00,,,0.00,VWS V14.01,2013-07-04 07:11:00,
2013-07-04 03:12:00,62.1,59.8,29.98,South,173,0.0,0.0,92,0.00,,,0.00,VWS V14.01,2013-07-04 07:12:00,
2013-07-04 03:13:00,62.1,59.8,29.98,South,173,0.0,0.0,92,0.00,,,0.00,VWS V14.01,2013-07-04 07:13:00,
2013-07-04 03:14:00,62.1,59.5,29.98,South,173,0.0,0.0,91,0.00,,,0.00,VWS V14.01,2013-07-04 07:14:00,
2013-07-04 03:15:00,62.0,59.3,29.98,South,173,0.0,0.0,91,0.00,,,0.00,VWS V14.01,2013-07-04 07:15:00,
2013-07-04 03:16:00,61.9,59.2,29.98,South,173,0.0,0.0,91,0.00,,,0.00,VWS V14.01,2013-07-04 07:16:00,
2013-07-04 03:17:00,61.9,59.2,29.98,South,173,0.0,0.0,91,0.00,,,0.00,VWS V14.01,2013-07-04 07:17:00,
2013-07-04 03:18:00,61.8,59.2,29.98,South,173,0.0,0.0,91,0.00,,,0.00,VWS V14.01,2013-07-04 07:18:00,
2013-07-04 03:19:00,61.8,59.2,29.98,South,173,0.0,0.0,91,0.00,,,0.00,VWS V14.01,2013-07-04 07:19:00,
2013-07-04 03:20:00,61.8,59.5,29.98,South,173,0.0,0.0,92,0.00,,,0.00,VWS V14.01,2013-07-04 07:20:00,
2013-07-04 03:21:00,61.7,59.4,29.98,South,173,0.0,0.0,92,0.00,,,0.00,VWS V14.01,2013-07-04 07:21:00,
2013-07-04 03:22:00,61.7,59.4,29.98,South,173,0.0,0.0,92,0.00,,,0.00,VWS V14.01,2013-07-04 07:22:00,
2013-07-04 03:23:00,61.6,59.6,29.99,South,189,0.0,0.0,93,0.00,,,0.00,VWS V14.01,2013-07-04 07:23:00,
2013-07-04 03:24:00,61.6,59.6,29.99,South,188,0.0,0.0,93,0.00,,,0.00,VWS V14.01,2013-07-04 07:24:00,
2013-07-04 03:25:00,61.6,59.6,29.99,South,188,0.0,0.0,93,0.00,,,0.00,VWS V14.01,2013-07-04 07:25:00,
2013-07-04 03:26:00,61.6,59.6,29.99,South,188,0.0,0.0,93,0.00,,,0.00,VWS V14.01,2013-07-04 07:26:00,
2013-07-04 03:27:00,61.6,59.6,29.99,South,188,0.0,0.0,93,0.00,,,0.00,VWS V14.01,2013-07-04 07:27:00,
2013-07-04 03:28:00,61.5,59.5,29.99,South,171,0.0,0.0,93,0.00,,,0.00,VWS V14.01,2013-07-04 07:28:00,
2013-07-04 03:29:00,61.5,59.5,29.99,South,172,0.0,0.0,93,0.00,,,0.00,VWS V14.01,2013-07-04 07:29:00,
2013-07-04 03:30:00,61.5,59.8,29.98,SSW,199,0.0,0.0,94,0.00,,,0.00,VWS V14.01,2013-07-04 07:30:00,
2013-07-04 03:31:00,61.5,59.8,29.98,SSW,199,0.0,0.0,94,0.00,,,0.00,VWS V14.01,2013-07-04 07:31:00,
2013-07-04 03:32:00,61.5,59.8,29.98,SSW,199,0.0,0.0,94,0.00,,,0.00,VWS V14.01,2013-07-04 07:32:00,
2013-07-04 03:33:00,61.5,59.8,29.98,SSW,192,0.0,0.0,94,0.00,,,0.00,VWS V14.01,2013-07-04 07:33:00,
2013-07-04 03:34:00,61.5,59.8,29.98,South,188,0.0,0.0,94,0.00,,,0.00,VWS V14.01,2013-07-04 07:34:00,
2013-07-04 03:35:00,61.4,59.7,29.98,South,189,0.0,0.0,94,0.00,,,0.00,VWS V14.01,2013-07-04 07:35:00,
2013-07-04 03:36:00,61.4,59.7,29.98,South,189,0.0,0.0,94,0.00,,,0.00,VWS V14.01,2013-07-04 07:36:00,
2013-07-04 03:37:00,61.4,59.7,29.98,South,189,0.0,0.0,94,0.00,,,0.00,VWS V14.01,2013-07-04 07:37:00,
2013-07-04 03:38:00,61.4,59.7,29.98,South,189,0.0,0.0,94,0.00,,,0.00,VWS V14.01,2013-07-04 07:38:00,
2013-07-04 03:39:00,61.4,59.7,29.98,South,189,0.0,0.0,94,0.00,,,0.00,VWS V14.01,2013-07-04 07:39:00,
2013-07-04 03:40:00,61.4,60.0,29.98,South,189,0.0,0.0,95,0.00,,,0.00,VWS V14.01,2013-07-04 07:40:00,
2013-07-04 03:41:00,61.4,60.0,29.98,South,189,0.0,0.0,95,0.00,,,0.00,VWS V14.01,2013-07-04 07:41:00,
2013-07-04 03:42:00,61.4,60.0,29.98,South,189,0.0,0.0,95,0.00,,,0.00,VWS V14.01,2013-07-04 07:42:00,
2013-07-04 03:43:00,61.4,59.7,29.98,South,189,0.0,0.0,94,0.00,,,0.00,VWS V14.01,2013-07-04 07:43:00,
2013-07-04 03:44:00,61.4,59.7,29.98,South,189,0.0,0.0,94,0.00,,,0.00,VWS V14.01,2013-07-04 07:44:00,
2013-07-04 03:45:00,61.4,60.0,29.98,South,189,0.0,0.0,95,0.00,,,0.00,VWS V14.01,2013-07-04 07:45:00,
2013-07-04 03:46:00,61.4,60.0,29.98,South,189,0.0,0.0,95,0.00,,,0.00,VWS V14.01,2013-07-04 07:46:00,
2013-07-04 03:47:00,61.4,60.0,29.98,South,189,0.0,0.0,95,0.00,,,0.00,VWS V14.01,2013-07-04 07:47:00,
2013-07-04 03:48:00,61.4,60.0,29.98,South,189,0.0,0.0,95,0.00,,,0.00,VWS V14.01,2013-07-04 07:48:00,
2013-07-04 03:49:00,61.4,60.0,29.98,South,189,0.0,0.0,95,0.00,,,0.00,VWS V14.01,2013-07-04 07:49:00,
2013-07-04 03:50:00,61.3,59.9,29.98,South,189,0.0,0.0,95,0.00,,,0.00,VWS V14.01,2013-07-04 07:50:00,
2013-07-04 03:51:00,61.3,59.9,29.98,South,189,0.0,0.0,95,0.00,,,0.00,VWS V14.01,2013-07-04 07:51:00,
2013-07-04 03:52:00,61.4,60.0,29.98,South,189,0.0,0.0,95,0.00,,,0.00,VWS V14.01,2013-07-04 07:52:00,
2013-07-04 03:53:00,61.3,59.9,29.98,South,189,0.0,0.0,95,0.00,,,0.00,VWS V14.01,2013-07-04 07:53:00,
2013-07-04 03:54:00,61.3,59.9,29.98,South,189,0.0,0.0,95,0.00,,,0.00,VWS V14.01,2013-07-04 07:54:00,
2013-07-04 03:55:00,61.3,59.9,29.98,South,190,0.0,0.0,95,0.00,,,0.00,VWS V14.01,2013-07-04 07:55:00,
2013-07-04 03:56:00,61.3,59.9,29.98,South,190,0.0,0.0,95,0.00,,,0.00,VWS V14.01,2013-07-04 07:56:00,
2013-07-04 03:57:00,61.3,59.9,29.98,South,190,0.0,0.0,95,0.00,,,0.00,VWS V14.01,2013-07-04 07:57:00,
2013-07-04 03:58:00,61.2,59.8,29.98,South,191,0.0,0.0,95,0.00,,,0.00,VWS V14.01,2013-07-04 07:58:00,
2013-07-04 03:59:00,61.2,59.8,29.98,South,191,0.0,0.0,95,0.00,,,0.00,VWS V14.01,2013-07-04 07:59:00,
2013-07-04 04:00:00,61.2,59.8,29.98,South,191,0.0,0.0,95,0.00,,,0.00,VWS V14.01,2013-07-04 08:00:00,
2013-07-04 04:01:00,61.2,59.8,29.98,South,191,0.0,0.0,95,0.00,,,0.00,VWS V14.01,2013-07-04 08:01:00,
2013-07-04 04:02:00,61.2,59.8,29.98,South,191,0.0,0.0,95,0.00,,,0.00,VWS V14.01,2013-07-04 08:02:00,
2013-07-04 04:03:00,61.1,59.7,29.98,South,190,0.0,0.0,95,0.00,,,0.00,VWS V14.01,2013-07-04 08:03:00,
2013-07-04 04:04:00,61.1,59.7,29.98,South,190,0.0,0.0,95,0.00,,,0.00,VWS V14.01,2013-07-04 08:04:00,
2013-07-04 04:05:00,61.2,60.0,29.98,South,190,0.0,0.0,96,0.00,,,0.00,VWS V14.01,2013-07-04 08:05:00,
2013-07-04 04:06:00,61.2,60.0,29.98,South,191,0.0,0.0,96,0.00,,,0.00,VWS V14.01,2013-07-04 08:06:00,
2013-07-04 04:07:00,61.3,60.2,29.98,South,191,0.0,0.0,96,0.00,,,0.00,VWS V14.01,2013-07-04 08:07:00,
2013-07-04 04:08:00,61.3,60.2,29.98,South,191,0.0,0.0,96,0.00,,,0.00,VWS V14.01,2013-07-04 08:08:00,
2013-07-04 04:09:00,61.3,60.2,29.98,South,191,0.0,0.0,96,0.00,,,0.00,VWS V14.01,2013-07-04 08:09:00,
2013-07-04 04:10:00,61.3,60.2,29.98,South,191,0.0,0.0,96,0.00,,,0.00,VWS V14.01,2013-07-04 08:10:00,
2013-07-04 04:11:00,61.3,59.9,29.98,South,191,0.0,0.0,95,0.00,,,0.00,VWS V14.01,2013-07-04 08:11:00,
2013-07-04 04:12:00,61.3,59.9,29.98,South,191,0.0,0.0,95,0.00,,,0.00,VWS V14.01,2013-07-04 08:12:00,
2013-07-04 04:13:00,61.3,59.9,29.98,South,191,0.0,0.0,95,0.00,,,0.00,VWS V14.01,2013-07-04 08:13:00,
2013-07-04 04:14:00,61.3,59.9,29.98,South,191,0.0,0.0,95,0.00,,,0.00,VWS V14.01,2013-07-04 08:14:00,
2013-07-04 04:15:00,61.3,59.9,29.98,South,191,0.0,0.0,95,0.00,,,0.00,VWS V14.01,2013-07-04 08:15:00,
2013-07-04 04:16:00,61.3,59.9,29.98,South,191,0.0,0.0,95,0.00,,,0.00,VWS V14.01,2013-07-04 08:16:00,
2013-07-04 04:17:00,61.3,60.2,29.98,South,191,0.0,0.0,96,0.00,,,0.00,VWS V14.01,2013-07-04 08:17:00,
2013-07-04 04:18:00,61.3,59.9,29.98,South,191,0.0,0.0,95,0.00,,,0.00,VWS V14.01,2013-07-04 08:18:00,
2013-07-04 04:19:00,61.3,59.9,29.98,South,191,0.0,0.0,95,0.00,,,0.00,VWS V14.01,2013-07-04 08:19:00,
2013-07-04 04:20:00,61.3,59.9,29.98,South,191,0.0,0.0,95,0.00,,,0.00,VWS V14.01,2013-07-04 08:20:00,
2013-07-04 04:21:00,61.2,59.8,29.98,South,191,0.0,0.0,95,0.00,,,0.00,VWS V14.01,2013-07-04 08:21:00,
2013-07-04 04:22:00,61.2,59.8,29.97,South,191,0.0,0.0,95,0.00,,,0.00,VWS V14.01,2013-07-04 08:22:00,
2013-07-04 04:23:00,61.2,59.8,29.97,South,191,0.0,0.0,95,0.00,,,0.00,VWS V14.01,2013-07-04 08:23:00,
2013-07-04 04:24:00,61.2,59.8,29.97,South,191,0.0,0.0,95,0.00,,,0.00,VWS V14.01,2013-07-04 08:24:00,
2013-07-04 04:25:00,61.2,59.8,29.97,South,191,0.0,0.0,95,0.00,,,0.00,VWS V14.01,2013-07-04 08:25:00,
2013-07-04 04:26:00,61.1,59.7,29.97,South,191,0.0,0.0,95,0.00,,,0.00,VWS V14.01,2013-07-04 08:26:00,
2013-07-04 04:27:00,61.1,59.7,29.98,South,191,0.0,0.0,95,0.00,,,0.00,VWS V14.01,2013-07-04 08:27:00,
2013-07-04 04:28:00,61.0,59.6,29.98,South,191,0.0,0.0,95,0.00,,,0.00,VWS V14.01,2013-07-04 08:28:00,
2013-07-04 04:29:00,61.1,59.7,29.98,South,191,0.0,0.0,95,0.00,,,0.00,VWS V14.01,2013-07-04 08:29:00,
2013-07-04 04:30:00,61.1,59.7,29.98,South,191,0.0,0.0,95,0.00,,,0.00,VWS V14.01,2013-07-04 08:30:00,
2013-07-04 04:31:00,61.0,59.6,29.98,South,191,0.0,0.0,95,0.00,,,0.00,VWS V14.01,2013-07-04 08:31:00,
2013-07-04 04:32:00,61.0,59.6,29.98,South,191,0.0,0.0,95,0.00,,,0.00,VWS V14.01,2013-07-04 08:32:00,
2013-07-04 04:33:00,61.0,59.6,29.98,South,191,0.0,0.0,95,0.00,,,0.00,VWS V14.01,2013-07-04 08:33:00,
2013-07-04 04:34:00,61.0,59.6,29.98,South,191,0.0,0.0,95,0.00,,,0.00,VWS V14.01,2013-07-04 08:34:00,
2013-07-04 04:35:00,61.0,59.8,29.98,South,191,0.0,0.0,96,0.00,,,0.00,VWS V14.01,2013-07-04 08:35:00,
2013-07-04 04:36:00,61.0,59.8,29.98,SSW,197,0.0,0.0,96,0.00,,,0.00,VWS V14.01,2013-07-04 08:36:00,
2013-07-04 04:37:00,61.0,59.8,29.98,SSW,197,0.0,0.0,96,0.00,,,0.00,VWS V14.01,2013-07-04 08:37:00,
2013-07-04 04:38:00,61.0,59.8,29.98,SSW,197,0.0,0.0,96,0.00,,,0.00,VWS V14.01,2013-07-04 08:38:00,
2013-07-04 04:39:00,61.0,59.9,29.98,SSW,197,0.0,0.0,96,0.00,,,0.00,VWS V14.01,2013-07-04 08:39:00,
2013-07-04 04:40:00,61.0,59.8,29.98,SSW,197,0.0,0.0,96,0.00,,,0.00,VWS V14.01,2013-07-04 08:40:00,
2013-07-04 04:41:00,61.0,59.8,29.98,SSW,197,0.0,0.0,96,0.00,,,0.00,VWS V14.01,2013-07-04 08:41:00,
2013-07-04 04:42:00,61.0,59.8,29.98,SSW,197,0.0,0.0,96,0.00,,,0.00,VWS V14.01,2013-07-04 08:42:00,
2013-07-04 04:43:00,61.0,59.8,29.98,SSW,197,0.0,0.0,96,0.00,,,0.00,VWS V14.01,2013-07-04 08:43:00,
2013-07-04 04:44:00,60.9,59.8,29.98,SSW,197,0.0,0.0,96,0.00,,,0.00,VWS V14.01,2013-07-04 08:44:00,
2013-07-04 04:45:00,60.9,59.8,29.98,SSW,197,0.0,0.0,96,0.00,,,0.00,VWS V14.01,2013-07-04 08:45:00,
2013-07-04 04:46:00,60.9,59.8,29.98,SSW,197,0.0,0.0,96,0.00,,,0.00,VWS V14.01,2013-07-04 08:46:00,
2013-07-04 04:47:00,60.9,59.8,29.98,SSW,197,0.0,0.0,96,0.00,,,0.00,VWS V14.01,2013-07-04 08:47:00,
2013-07-04 04:48:00,60.9,59.8,29.98,SSW,197,0.0,0.0,96,0.00,,,0.00,VWS V14.01,2013-07-04 08:48:00,
2013-07-04 04:49:00,60.9,59.8,29.98,SSW,197,0.0,0.0,96,0.00,,,0.00,VWS V14.01,2013-07-04 08:49:00,
2013-07-04 04:50:00,60.9,59.8,29.98,SSW,197,0.0,0.0,96,0.00,,,0.00,VWS V14.01,2013-07-04 08:50:00,
2013-07-04 04:51:00,60.9,59.5,29.98,SSW,197,0.0,0.0,95,0.00,,,0.00,VWS V14.01,2013-07-04 08:51:00,
2013-07-04 04:52:00,60.8,59.4,29.98,SSW,197,0.0,0.0,95,0.00,,,0.00,VWS V14.01,2013-07-04 08:52:00,
2013-07-04 04:53:00,60.8,59.4,29.98,SSW,197,0.0,0.0,95,0.00,,,0.00,VWS V14.01,2013-07-04 08:53:00,
2013-07-04 04:54:00,60.8,59.7,29.98,SSW,197,0.0,0.0,96,0.00,,,0.00,VWS V14.01,2013-07-04 08:54:00,
2013-07-04 04:55:00,60.8,59.7,29.98,SSW,197,0.0,0.0,96,0.00,,,0.00,VWS V14.01,2013-07-04 08:55:00,
2013-07-04 04:56:00,60.8,59.7,29.98,SSW,197,0.0,0.0,96,0.00,,,0.00,VWS V14.01,2013-07-04 08:56:00,
2013-07-04 04:57:00,60.8,59.7,29.98,SSW,197,0.0,0.0,96,0.00,,,0.00,VWS V14.01,2013-07-04 08:57:00,
2013-07-04 04:58:00,60.8,59.7,29.98,SSW,197,0.0,0.0,96,0.00,,,0.00,VWS V14.01,2013-07-04 08:58:00,
2013-07-04 04:59:00,60.8,59.7,29.98,SSW,197,0.0,0.0,96,0.00,,,0.00,VWS V14.01,2013-07-04 08:59:00,
2013-07-04 05:00:00,60.8,59.7,29.98,SSW,197,0.0,0.0,96,0.00,,,0.00,VWS V14.01,2013-07-04 09:00:00,
2013-07-04 05:01:00,60.7,59.6,29.98,SSW,197,0.0,0.0,96,0.00,,,0.00,VWS V14.01,2013-07-04 09:01:00,
2013-07-04 05:02:00,60.8,59.7,29.98,SSW,197,0.0,0.0,96,0.00,,,0.00,VWS V14.01,2013-07-04 09:02:00,
2013-07-04 05:03:00,60.7,59.6,29.98,SSW,197,0.0,0.0,96,0.00,,,0.00,VWS V14.01,2013-07-04 09:03:00,
2013-07-04 05:04:00,60.7,59.6,29.98,SSW,197,0.0,0.0,96,0.00,,,0.00,VWS V14.01,2013-07-04 09:04:00,
2013-07-04 05:05:00,60.7,59.6,29.98,SSW,197,0.0,0.0,96,0.00,,,0.00,VWS V14.01,2013-07-04 09:05:00,
2013-07-04 05:06:00,60.7,59.3,29.98,SSW,197,0.0,0.0,95,0.00,,,0.00,VWS V14.01,2013-07-04 09:06:00,
2013-07-04 05:07:00,60.6,59.2,29.98,SSW,197,0.0,0.0,95,0.00,,,0.00,VWS V14.01,2013-07-04 09:07:00,
2013-07-04 05:08:00,60.5,59.1,29.98,SSW,197,0.0,0.0,95,0.00,,,0.00,VWS V14.01,2013-07-04 09:08:00,
2013-07-04 05:09:00,60.5,59.1,29.98,SSW,197,0.0,0.0,95,0.00,,,0.00,VWS V14.01,2013-07-04 09:09:00,
2013-07-04 05:10:00,60.5,59.1,29.99,SSW,197,0.0,0.0,95,0.00,,,0.00,VWS V14.01,2013-07-04 09:10:00,
2013-07-04 05:11:00,60.5,59.1,29.98,SSW,197,0.0,0.0,95,0.00,,,0.00,VWS V14.01,2013-07-04 09:11:00,
2013-07-04 05:12:00,60.4,59.0,29.98,SSW,197,0.0,0.0,95,0.00,,,0.00,VWS V14.01,2013-07-04 09:12:00,
2013-07-04 05:13:00,60.4,59.3,29.98,SSW,197,0.0,0.0,96,0.00,,,0.00,VWS V14.01,2013-07-04 09:13:00,
2013-07-04 05:14:00,60.4,59.3,29.99,SSW,197,0.0,0.0,96,0.00,,,0.00,VWS V14.01,2013-07-04 09:14:00,
2013-07-04 05:15:00,60.4,59.3,29.98,SSW,197,0.0,0.0,96,0.00,,,0.00,VWS V14.01,2013-07-04 09:15:00,
2013-07-04 05:16:00,60.4,59.3,29.99,SSW,197,0.0,0.0,96,0.00,,,0.00,VWS V14.01,2013-07-04 09:16:00,
2013-07-04 05:17:00,60.4,59.3,29.99,SSW,197,0.0,0.0,96,0.00,,,0.00,VWS V14.01,2013-07-04 09:17:00,
2013-07-04 05:18:00,60.4,59.3,29.99,SSW,197,0.0,0.0,96,0.00,,,0.00,VWS V14.01,2013-07-04 09:18:00,
2013-07-04 05:19:00,60.4,59.3,29.99,SSW,197,0.0,0.0,96,0.00,,,0.00,VWS V14.01,2013-07-04 09:19:00,
2013-07-04 05:20:00,60.4,59.3,29.99,SSW,197,0.0,0.0,96,0.00,,,0.00,VWS V14.01,2013-07-04 09:20:00,
2013-07-04 05:21:00,60.4,59.3,29.99,SSW,197,0.0,0.0,96,0.00,,,0.00,VWS V14.01,2013-07-04 09:21:00,
2013-07-04 05:22:00,60.3,59.2,29.99,SSW,197,0.0,0.0,96,0.00,,,0.00,VWS V14.01,2013-07-04 09:22:00,
2013-07-04 05:23:00,60.3,58.9,29.99,SSW,197,0.0,0.0,95,0.00,,,0.00,VWS V14.01,2013-07-04 09:23:00,
2013-07-04 05:24:00,60.2,58.8,29.99,SSW,197,0.0,0.0,95,0.00,,,0.00,VWS V14.01,2013-07-04 09:24:00,
2013-07-04 05:25:00,60.2,58.8,29.99,SSW,197,0.0,0.0,95,0.00,,,0.00,VWS V14.01,2013-07-04 09:25:00,
2013-07-04 05:26:00,60.1,58.7,29.99,SSW,197,0.0,0.0,95,0.00,,,0.00,VWS V14.01,2013-07-04 09:26:00,
2013-07-04 05:27:00,60.0,58.6,29.99,SSW,197,0.0,0.0,95,0.00,,,0.00,VWS V14.01,2013-07-04 09:27:00,
2013-07-04 05:28:00,60.0,58.6,29.99,SSW,197,0.0,0.0,95,0.00,,,0.00,VWS V14.01,2013-07-04 09:28:00,
2013-07-04 05:29:00,60.0,58.6,29.99,SSW,197,0.0,0.0,95,0.00,,,0.00,VWS V14.01,2013-07-04 09:29:00,
2013-07-04 05:30:00,59.9,58.5,29.99,SSW,197,0.0,0.0,95,0.00,,,0.00,VWS V14.01,2013-07-04 09:30:00,
2013-07-04 05:31:00,59.9,58.5,29.99,SSW,197,0.0,0.0,95,0.00,,,0.00,VWS V14.01,2013-07-04 09:31:00,
2013-07-04 05:32:00,59.8,58.4,29.99,SSW,197,0.0,0.0,95,0.00,,,0.00,VWS V14.01,2013-07-04 09:32:00,
2013-07-04 05:33:00,59.8,58.1,29.99,SSW,201,0.0,0.0,94,0.00,,,0.00,VWS V14.01,2013-07-04 09:33:00,
2013-07-04 05:34:00,59.7,58.0,29.99,SSW,201,0.0,0.0,94,0.00,,,0.00,VWS V14.01,2013-07-04 09:34:00,
2013-07-04 05:35:00,59.6,58.2,29.99,West,267,0.0,0.0,95,0.00,,,0.00,VWS V14.01,2013-07-04 09:35:00,
2013-07-04 05:36:00,59.6,58.2,29.99,West,267,0.0,0.0,95,0.00,,,0.00,VWS V14.01,2013-07-04 09:36:00,
2013-07-04 05:37:00,59.6,58.2,29.99,West,267,0.0,0.0,95,0.00,,,0.00,VWS V14.01,2013-07-04 09:37:00,
2013-07-04 05:38:00,59.5,58.1,29.99,West,267,0.0,0.0,95,0.00,,,0.00,VWS V14.01,2013-07-04 09:38:00,
2013-07-04 05:39:00,59.5,58.1,29.99,West,267,0.0,0.0,95,0.00,,,0.00,VWS V14.01,2013-07-04 09:39:00,
2013-07-04 05:40:00,59.6,58.5,29.99,West,260,0.0,0.0,96,0.00,,,0.00,VWS V14.01,2013-07-04 09:40:00,
2013-07-04 05:41:00,59.6,58.5,29.99,West,260,0.0,0.0,96,0.00,,,0.00,VWS V14.01,2013-07-04 09:41:00,
2013-07-04 05:42:00,59.6,58.5,29.99,West,260,0.0,0.0,96,0.00,,,0.00,VWS V14.01,2013-07-04 09:42:00,
2013-07-04 05:43:00,59.6,58.5,29.99,West,260,0.0,0.0,96,0.00,,,0.00,VWS V14.01,2013-07-04 09:43:00,
2013-07-04 05:44:00,59.6,58.5,29.99,West,260,0.0,0.0,96,0.00,,,0.00,VWS V14.01,2013-07-04 09:44:00,
2013-07-04 05:45:00,59.8,59.0,29.99,West,260,0.0,0.0,97,0.00,,,0.00,VWS V14.01,2013-07-04 09:45:00,
2013-07-04 05:46:00,59.8,59.0,29.99,West,260,0.0,0.0,97,0.00,,,0.00,VWS V14.01,2013-07-04 09:46:00,
2013-07-04 05:47:00,59.8,59.0,29.99,West,261,0.0,0.0,97,0.00,,,0.00,VWS V14.01,2013-07-04 09:47:00,
2013-07-04 05:48:00,59.9,59.0,29.99,West,261,0.0,0.0,97,0.00,,,0.00,VWS V14.01,2013-07-04 09:48:00,
2013-07-04 05:49:00,59.9,59.0,29.99,WSW,250,0.0,0.0,97,0.00,,,0.00,VWS V14.01,2013-07-04 09:49:00,
2013-07-04 05:50:00,60.0,59.2,29.99,WSW,250,0.0,0.0,97,0.00,,,0.00,VWS V14.01,2013-07-04 09:50:00,
2013-07-04 05:51:00,60.0,59.2,29.99,WSW,250,0.0,0.0,97,0.00,,,0.00,VWS V14.01,2013-07-04 09:51:00,
2013-07-04 05:52:00,60.0,59.2,30.00,WSW,250,0.0,0.0,97,0.00,,,0.00,VWS V14.01,2013-07-04 09:52:00,
2013-07-04 05:53:00,60.0,59.2,30.00,WSW,250,0.0,0.0,97,0.00,,,0.00,VWS V14.01,2013-07-04 09:53:00,
2013-07-04 05:54:00,60.1,59.2,30.00,WSW,250,0.0,0.0,97,0.00,,,0.00,VWS V14.01,2013-07-04 09:54:00,
2013-07-04 05:55:00,60.1,59.2,30.00,WSW,250,0.0,0.0,97,0.00,,,0.00,VWS V14.01,2013-07-04 09:55:00,
2013-07-04 05:56:00,60.1,59.2,30.00,WSW,250,0.0,0.0,97,0.00,,,0.00,VWS V14.01,2013-07-04 09:56:00,
2013-07-04 05:57:00,60.1,59.2,30.00,WSW,250,0.0,0.0,97,0.00,,,0.00,VWS V14.01,2013-07-04 09:57:00,
2013-07-04 05:58:00,60.1,59.2,30.00,WSW,250,0.0,0.0,97,0.00,,,0.00,VWS V14.01,2013-07-04 09:58:00,
2013-07-04 05:59:00,60.1,59.2,30.00,WSW,250,0.0,0.0,97,0.00,,,0.00,VWS V14.01,2013-07-04 09:59:00,
2013-07-04 06:00:00,60.1,59.2,30.00,WSW,250,0.0,0.0,97,0.00,,,0.00,VWS V14.01,2013-07-04 10:00:00,
2013-07-04 06:01:00,60.1,59.2,30.00,WSW,250,0.0,0.0,97,0.00,,,0.00,VWS V14.01,2013-07-04 10:01:00,
2013-07-04 06:02:00,60.1,59.2,30.00,WSW,251,0.0,0.0,97,0.00,,,0.00,VWS V14.01,2013-07-04 10:02:00,
2013-07-04 06:03:00,60.1,59.2,30.00,WSW,251,0.0,0.0,97,0.00,,,0.00,VWS V14.01,2013-07-04 10:03:00,
2013-07-04 06:04:00,60.1,59.2,30.00,WSW,250,0.0,0.0,97,0.00,,,0.00,VWS V14.01,2013-07-04 10:04:00,
2013-07-04 06:05:00,60.1,59.2,30.00,WSW,250,0.0,0.0,97,0.00,,,0.00,VWS V14.01,2013-07-04 10:05:00,
2013-07-04 06:06:00,60.1,59.2,30.00,WSW,250,0.0,0.0,97,0.00,,,0.00,VWS V14.01,2013-07-04 10:06:00,
2013-07-04 06:07:00,60.1,59.2,30.00,WSW,251,0.0,0.0,97,0.00,,,0.00,VWS V14.01,2013-07-04 10:07:00,
2013-07-04 06:08:00,60.2,59.3,30.00,WSW,250,0.0,0.0,97,0.00,,,0.00,VWS V14.01,2013-07-04 10:08:00,
2013-07-04 06:09:00,60.1,59.2,30.00,WSW,250,0.0,0.0,97,0.00,,,0.00,VWS V14.01,2013-07-04 10:09:00,
2013-07-04 06:10:00,60.1,59.2,30.00,WSW,250,0.0,0.0,97,0.00,,,0.00,VWS V14.01,2013-07-04 10:10:00,
2013-07-04 06:11:00,60.1,59.2,30.00,WSW,251,0.0,0.0,97,0.00,,,0.00,VWS V14.01,2013-07-04 10:11:00,
2013-07-04 06:12:00,60.1,59.2,30.00,WSW,250,0.0,0.0,97,0.00,,,0.00,VWS V14.01,2013-07-04 10:12:00,
2013-07-04 06:13:00,60.1,59.2,30.00,WSW,250,0.0,0.0,97,0.00,,,0.00,VWS V14.01,2013-07-04 10:13:00,
2013-07-04 06:14:00,60.1,59.2,30.00,WSW,250,0.0,0.0,97,0.00,,,0.00,VWS V14.01,2013-07-04 10:14:00,
2013-07-04 06:15:00,60.2,59.3,30.00,WSW,250,0.0,0.0,97,0.00,,,0.00,VWS V14.01,2013-07-04 10:15:00,
2013-07-04 06:16:00,60.1,59.2,30.00,WSW,250,0.0,0.0,97,0.00,,,0.00,VWS V14.01,2013-07-04 10:16:00,
2013-07-04 06:17:00,60.1,59.2,30.00,WSW,250,0.0,0.0,97,0.00,,,0.00,VWS V14.01,2013-07-04 10:17:00,
2013-07-04 06:18:00,60.1,59.2,30.00,WSW,250,0.0,0.0,97,0.00,,,0.00,VWS V14.01,2013-07-04 10:18:00,
2013-07-04 06:19:00,60.1,59.2,30.00,WSW,250,0.0,0.0,97,0.00,,,0.00,VWS V14.01,2013-07-04 10:19:00,
2013-07-04 06:20:00,60.2,59.3,30.00,WSW,250,0.0,0.0,97,0.00,,,0.00,VWS V14.01,2013-07-04 10:20:00,
2013-07-04 06:21:00,60.2,59.3,30.00,WSW,250,0.0,0.0,97,0.00,,,0.00,VWS V14.01,2013-07-04 10:21:00,
2013-07-04 06:22:00,60.2,59.3,30.00,WSW,250,0.0,0.0,97,0.00,,,0.00,VWS V14.01,2013-07-04 10:22:00,
2013-07-04 06:23:00,60.2,59.3,30.00,WSW,250,0.0,0.0,97,0.00,,,0.00,VWS V14.01,2013-07-04 10:23:00,
2013-07-04 06:24:00,60.2,59.3,30.00,WSW,250,0.0,0.0,97,0.00,,,0.00,VWS V14.01,2013-07-04 10:24:00,
2013-07-04 06:25:00,60.2,59.3,30.00,WSW,250,0.0,0.0,97,0.00,,,0.00,VWS V14.01,2013-07-04 10:25:00,
2013-07-04 06:26:00,60.2,59.3,30.00,WSW,250,0.0,0.0,97,0.00,,,0.00,VWS V14.01,2013-07-04 10:26:00,
2013-07-04 06:27:00,60.2,59.3,30.00,WSW,250,0.0,0.0,97,0.00,,,0.00,VWS V14.01,2013-07-04 10:27:00,
2013-07-04 06:28:00,60.2,59.3,30.00,WSW,250,0.0,0.0,97,0.00,,,0.00,VWS V14.01,2013-07-04 10:28:00,
2013-07-04 06:29:00,60.2,59.3,30.00,WSW,250,0.0,0.0,97,0.00,,,0.00,VWS V14.01,2013-07-04 10:29:00,
2013-07-04 06:30:00,60.2,59.3,30.00,WSW,250,0.0,0.0,97,0.00,,,0.00,VWS V14.01,2013-07-04 10:30:00,
2013-07-04 06:31:00,60.2,59.3,30.00,WSW,250,0.0,0.0,97,0.00,,,0.00,VWS V14.01,2013-07-04 10:31:00,
2013-07-04 06:32:00,60.2,59.3,30.00,WSW,250,0.0,0.0,97,0.00,,,0.00,VWS V14.01,2013-07-04 10:32:00,
2013-07-04 06:33:00,60.2,59.3,30.00,WSW,250,0.0,0.0,97,0.00,,,0.00,VWS V14.01,2013-07-04 10:33:00,
2013-07-04 06:34:00,60.2,59.3,30.01,WSW,250,0.0,0.0,97,0.00,,,0.00,VWS V14.01,2013-07-04 10:34:00,
2013-07-04 06:35:00,60.3,59.5,30.00,WSW,250,0.0,0.0,97,0.00,,,0.00,VWS V14.01,2013-07-04 10:35:00,
2013-07-04 06:36:00,60.3,59.5,30.00,WSW,250,0.0,0.0,97,0.00,,,0.00,VWS V14.01,2013-07-04 10:36:00,
2013-07-04 06:37:00,60.3,59.5,30.00,WSW,250,0.0,0.0,97,0.00,,,0.00,VWS V14.01,2013-07-04 10:37:00,
2013-07-04 06:38:00,60.3,59.5,30.00,WSW,250,0.0,0.0,97,0.00,,,0.00,VWS V14.01,2013-07-04 10:38:00,
2013-07-04 06:39:00,60.3,59.5,30.00,WSW,250,0.0,0.0,97,0.00,,,0.00,VWS V14.01,2013-07-04 10:39:00,
2013-07-04 06:40:00,60.3,59.5,30.00,WSW,250,0.0,0.0,97,0.00,,,0.00,VWS V14.01,2013-07-04 10:40:00,
2013-07-04 06:41:00,60.4,59.5,30.00,WSW,250,0.0,0.0,97,0.00,,,0.00,VWS V14.01,2013-07-04 10:41:00,
2013-07-04 06:42:00,60.4,59.5,30.00,WSW,250,0.0,0.0,97,0.00,,,0.00,VWS V14.01,2013-07-04 10:42:00,
2013-07-04 06:43:00,60.4,59.5,30.00,WSW,250,0.0,0.0,97,0.00,,,0.00,VWS V14.01,2013-07-04 10:43:00,
2013-07-04 06:44:00,60.4,59.5,30.00,WSW,241,0.0,0.0,97,0.00,,,0.00,VWS V14.01,2013-07-04 10:44:00,
2013-07-04 06:45:00,60.4,59.5,30.00,WSW,241,0.0,0.0,97,0.00,,,0.00,VWS V14.01,2013-07-04 10:45:00,
2013-07-04 06:46:00,60.5,59.7,30.01,WSW,240,0.0,0.0,97,0.00,,,0.00,VWS V14.01,2013-07-04 10:46:00,
2013-07-04 06:47:00,60.5,59.7,30.01,WSW,240,0.0,0.0,97,0.00,,,0.00,VWS V14.01,2013-07-04 10:47:00,
2013-07-04 06:48:00,60.5,59.7,30.00,WSW,240,0.0,0.0,97,0.00,,,0.00,VWS V14.01,2013-07-04 10:48:00,
2013-07-04 06:49:00,60.5,59.7,30.01,WSW,240,0.0,0.0,97,0.00,,,0.00,VWS V14.01,2013-07-04 10:49:00,
2013-07-04 06:50:00,60.6,59.8,30.01,WSW,240,0.0,0.0,97,0.00,,,0.00,VWS V14.01,2013-07-04 10:50:00,
2013-07-04 06:51:00,60.7,59.8,30.01,WSW,240,0.0,0.0,97,0.00,,,0.00,VWS V14.01,2013-07-04 10:51:00,
2013-07-04 06:52:00,60.7,59.8,30.01,WSW,240,0.0,0.0,97,0.00,,,0.00,VWS V14.01,2013-07-04 10:52:00,
2013-07-04 06:53:00,60.7,59.8,30.01,WSW,239,0.0,0.0,97,0.00,,,0.00,VWS V14.01,2013-07-04 10:53:00,
2013-07-04 06:54:00,60.7,59.8,30.01,WSW,239,0.0,0.0,97,0.00,,,0.00,VWS V14.01,2013-07-04 10:54:00,
2013-07-04 06:55:00,60.7,60.1,30.01,WSW,239,0.0,0.0,98,0.00,,,0.00,VWS V14.01,2013-07-04 10:55:00,
2013-07-04 06:56:00,60.8,60.2,30.01,WSW,239,0.0,0.0,98,0.00,,,0.00,VWS V14.01,2013-07-04 10:56:00,
2013-07-04 06:57:00,60.8,60.2,30.01,WSW,239,0.0,0.0,98,0.00,,,0.00,VWS V14.01,2013-07-04 10:57:00,
2013-07-04 06:58:00,60.8,60.2,30.01,WSW,239,0.0,0.0,98,0.00,,,0.00,VWS V14.01,2013-07-04 10:58:00,
2013-07-04 06:59:00,60.9,60.3,30.01,WSW,239,0.0,0.0,98,0.00,,,0.00,VWS V14.01,2013-07-04 10:59:00,
2013-07-04 07:00:00,60.9,60.3,30.01,WSW,239,0.0,0.0,98,0.00,,,0.00,VWS V14.01,2013-07-04 11:00:00,
2013-07-04 07:01:00,60.9,60.3,30.01,WSW,239,0.0,0.0,98,0.00,,,0.00,VWS V14.01,2013-07-04 11:01:00,
2013-07-04 07:02:00,60.9,60.3,30.01,WSW,239,0.0,0.0,98,0.00,,,0.00,VWS V14.01,2013-07-04 11:02:00,
2013-07-04 07:03:00,60.9,60.3,30.01,WSW,239,0.0,0.0,98,0.00,,,0.00,VWS V14.01,2013-07-04 11:03:00,
2013-07-04 07:04:00,60.9,60.3,30.01,WSW,239,0.0,0.0,98,0.00,,,0.00,VWS V14.01,2013-07-04 11:04:00,
2013-07-04 07:05:00,60.9,60.3,30.01,WSW,239,0.0,0.0,98,0.00,,,0.00,VWS V14.01,2013-07-04 11:05:00,
2013-07-04 07:06:00,61.0,60.4,30.01,SW,236,0.0,0.0,98,0.00,,,0.00,VWS V14.01,2013-07-04 11:06:00,
2013-07-04 07:07:00,61.0,60.4,30.01,SW,236,0.0,0.0,98,0.00,,,0.00,VWS V14.01,2013-07-04 11:07:00,
2013-07-04 07:08:00,61.0,60.2,30.01,SW,236,0.0,0.0,97,0.00,,,0.00,VWS V14.01,2013-07-04 11:08:00,
2013-07-04 07:09:00,61.0,60.2,30.01,SW,236,0.0,0.0,97,0.00,,,0.00,VWS V14.01,2013-07-04 11:09:00,
2013-07-04 07:10:00,61.0,60.2,30.01,SW,236,0.0,0.0,97,0.00,,,0.00,VWS V14.01,2013-07-04 11:10:00,
2013-07-04 07:11:00,61.1,60.2,30.01,SW,236,0.0,0.0,97,0.00,,,0.00,VWS V14.01,2013-07-04 11:11:00,
2013-07-04 07:12:00,61.1,60.2,30.01,SW,236,0.0,0.0,97,0.00,,,0.00,VWS V14.01,2013-07-04 11:12:00,
2013-07-04 07:13:00,61.1,60.2,30.01,SW,236,0.0,0.0,97,0.00,,,0.00,VWS V14.01,2013-07-04 11:13:00,
2013-07-04 07:14:00,61.1,60.2,30.01,SW,236,0.0,0.0,97,0.00,,,0.00,VWS V14.01,2013-07-04 11:14:00,
2013-07-04 07:15:00,61.1,60.2,30.01,SW,236,0.0,0.0,97,0.00,,,0.00,VWS V14.01,2013-07-04 11:15:00,
2013-07-04 07:16:00,61.1,60.2,30.02,SW,225,0.0,0.0,97,0.00,,,0.00,VWS V14.01,2013-07-04 11:16:00,
2013-07-04 07:17:00,61.1,60.2,30.02,SW,225,0.0,0.0,97,0.00,,,0.00,VWS V14.01,2013-07-04 11:17:00,
2013-07-04 07:18:00,61.1,60.2,30.02,SW,225,0.0,0.0,97,0.00,,,0.00,VWS V14.01,2013-07-04 11:18:00,
2013-07-04 07:19:00,61.1,60.2,30.02,SW,234,0.0,0.0,97,0.00,,,0.00,VWS V14.01,2013-07-04 11:19:00,
2013-07-04 07:20:00,61.2,60.3,30.02,SW,234,0.0,0.0,97,0.00,,,0.00,VWS V14.01,2013-07-04 11:20:00,
2013-07-04 07:21:00,61.2,60.3,30.01,WSW,237,0.0,0.0,97,0.00,,,0.00,VWS V14.01,2013-07-04 11:21:00,
2013-07-04 07:22:00,61.2,60.3,30.02,WSW,237,0.0,0.0,97,0.00,,,0.00,VWS V14.01,2013-07-04 11:22:00,
2013-07-04 07:23:00,61.2,60.3,30.01,SW,216,0.0,0.0,97,0.00,,,0.00,VWS V14.01,2013-07-04 11:23:00,
2013-07-04 07:24:00,61.2,60.3,30.02,West,267,0.0,0.0,97,0.00,,,0.00,VWS V14.01,2013-07-04 11:24:00,
2013-07-04 07:25:00,61.2,60.3,30.01,SW,220,0.0,0.0,97,0.00,,,0.00,VWS V14.01,2013-07-04 11:25:00,
2013-07-04 07:26:00,61.2,60.3,30.01,SW,227,0.0,0.0,97,0.00,,,0.00,VWS V14.01,2013-07-04 11:26:00,
2013-07-04 07:27:00,61.2,60.3,30.02,SW,227,0.0,0.0,97,0.00,,,0.00,VWS V14.01,2013-07-04 11:27:00,
2013-07-04 07:28:00,61.3,60.4,30.02,SW,227,0.0,0.0,97,0.00,,,0.00,VWS V14.01,2013-07-04 11:28:00,
2013-07-04 07:29:00,61.3,60.4,30.01,SW,227,0.0,0.0,97,0.00,,,0.00,VWS V14.01,2013-07-04 11:29:00,
2013-07-04 07:30:00,61.2,60.3,30.02,SW,227,0.0,0.0,97,0.00,,,0.00,VWS V14.01,2013-07-04 11:30:00,
2013-07-04 07:31:00,61.3,60.4,30.02,SW,222,0.0,0.0,97,0.00,,,0.00,VWS V14.01,2013-07-04 11:31:00,
2013-07-04 07:32:00,61.3,60.4,30.01,SW,222,0.0,0.0,97,0.00,,,0.00,VWS V14.01,2013-07-04 11:32:00,
2013-07-04 07:33:00,61.3,60.4,30.01,SW,222,0.0,0.0,97,0.00,,,0.00,VWS V14.01,2013-07-04 11:33:00,
2013-07-04 07:34:00,61.3,60.4,30.02,SW,222,0.0,0.0,97,0.00,,,0.00,VWS V14.01,2013-07-04 11:34:00,
2013-07-04 07:35:00,61.3,60.4,30.02,SW,222,0.0,0.0,97,0.00,,,0.00,VWS V14.01,2013-07-04 11:35:00,
2013-07-04 07:36:00,61.3,60.4,30.01,SSW,201,0.0,0.0,97,0.00,,,0.00,VWS V14.01,2013-07-04 11:36:00,
2013-07-04 07:37:00,61.3,60.4,30.02,SSW,210,0.0,0.0,97,0.00,,,0.00,VWS V14.01,2013-07-04 11:37:00,
2013-07-04 07:38:00,61.3,60.4,30.02,WSW,238,0.0,0.0,97,0.00,,,0.00,VWS V14.01,2013-07-04 11:38:00,
2013-07-04 07:39:00,61.3,60.4,30.02,WSW,243,0.0,0.0,97,0.00,,,0.00,VWS V14.01,2013-07-04 11:39:00,
2013-07-04 07:40:00,61.3,60.4,30.01,WSW,248,0.0,0.0,97,0.00,,,0.00,VWS V14.01,2013-07-04 11:40:00,
2013-07-04 07:41:00,61.2,60.3,30.01,West,277,0.0,0.0,97,0.00,,,0.00,VWS V14.01,2013-07-04 11:41:00,
2013-07-04 07:42:00,61.3,60.4,30.01,WSW,254,0.0,0.0,97,0.00,,,0.00,VWS V14.01,2013-07-04 11:42:00,
2013-07-04 07:43:00,61.3,60.4,30.01,WSW,254,0.0,0.0,97,0.00,,,0.00,VWS V14.01,2013-07-04 11:43:00,
2013-07-04 07:44:00,61.3,60.4,30.01,WSW,238,0.0,0.0,97,0.00,,,0.00,VWS V14.01,2013-07-04 11:44:00,
2013-07-04 07:45:00,61.3,60.4,30.02,WSW,238,1.0,0.0,97,0.00,,,0.00,VWS V14.01,2013-07-04 11:45:00,
2013-07-04 07:46:00,61.3,60.4,30.02,SSW,213,0.0,0.0,97,0.00,,,0.00,VWS V14.01,2013-07-04 11:46:00,
2013-07-04 07:47:00,61.3,60.4,30.02,SSW,212,0.0,0.0,97,0.00,,,0.00,VWS V14.01,2013-07-04 11:47:00,
2013-07-04 07:48:00,61.3,60.4,30.02,SSW,213,0.0,0.0,97,0.00,,,0.00,VWS V14.01,2013-07-04 11:48:00,
2013-07-04 07:49:00,61.3,60.4,30.02,SW,214,0.0,0.0,97,0.00,,,0.00,VWS V14.01,2013-07-04 11:49:00,
2013-07-04 07:50:00,61.3,60.4,30.02,SW,214,0.0,0.0,97,0.00,,,0.00,VWS V14.01,2013-07-04 11:50:00,
2013-07-04 07:51:00,61.3,60.4,30.02,SW,215,3.0,0.0,97,0.00,,,0.00,VWS V14.01,2013-07-04 11:51:00,
2013-07-04 07:52:00,61.3,60.4,30.02,SW,216,0.0,0.0,97,0.00,,,0.00,VWS V14.01,2013-07-04 11:52:00,
2013-07-04 07:53:00,61.3,60.4,30.02,SW,216,0.0,0.0,97,0.00,,,0.00,VWS V14.01,2013-07-04 11:53:00,
2013-07-04 07:54:00,61.3,60.4,30.02,SW,217,0.0,0.0,97,0.00,,,0.00,VWS V14.01,2013-07-04 11:54:00,
2013-07-04 07:55:00,61.3,60.4,30.02,SW,219,0.0,0.0,97,0.00,,,0.00,VWS V14.01,2013-07-04 11:55:00,
2013-07-04 07:56:00,61.3,60.4,30.02,SW,219,0.0,0.0,97,0.00,,,0.00,VWS V14.01,2013-07-04 11:56:00,
2013-07-04 07:57:00,61.2,60.3,30.02,SSW,200,0.0,0.0,97,0.00,,,0.00,VWS V14.01,2013-07-04 11:57:00,
2013-07-04 07:58:00,61.2,60.3,30.02,SSW,200,0.0,0.0,97,0.00,,,0.00,VWS V14.01,2013-07-04 11:58:00,
2013-07-04 07:59:00,61.3,60.4,30.02,SSW,207,0.0,0.0,97,0.00,,,0.00,VWS V14.01,2013-07-04 11:59:00,
2013-07-04 08:00:00,61.3,60.4,30.03,SSW,208,0.0,0.0,97,0.00,,,0.00,VWS V14.01,2013-07-04 12:00:00,
2013-07-04 08:01:00,61.3,60.4,30.03,SW,227,0.0,0.0,97,0.00,,,0.00,VWS V14.01,2013-07-04 12:01:00,
2013-07-04 08:02:00,61.3,60.4,30.03,SSW,192,0.0,0.0,97,0.00,,,0.00,VWS V14.01,2013-07-04 12:02:00,
2013-07-04 08:04:00,61.3,60.4,30.03,SW,224,0.0,0.0,97,0.00,,,0.00,VWS V14.01,2013-07-04 12:04:00,
2013-07-04 08:05:00,61.3,60.4,30.03,SSW,200,0.0,0.0,97,0.00,,,0.00,VWS V14.01,2013-07-04 12:05:00,
2013-07-04 08:06:00,61.3,60.4,30.03,WSW,242,0.0,0.0,97,0.00,,,0.00,VWS V14.01,2013-07-04 12:06:00,
2013-07-04 08:07:00,61.3,60.4,30.03,SW,218,0.0,0.0,97,0.00,,,0.00,VWS V14.01,2013-07-04 12:07:00,
2013-07-04 08:08:00,61.3,60.4,30.03,SW,218,0.0,0.0,97,0.00,,,0.00,VWS V14.01,2013-07-04 12:08:00,
2013-07-04 08:09:00,61.3,60.4,30.03,SW,221,0.0,0.0,97,0.00,,,0.00,VWS V14.01,2013-07-04 12:09:00,
2013-07-04 08:10:00,61.3,60.4,30.03,SSW,205,0.0,0.0,97,0.00,,,0.00,VWS V14.01,2013-07-04 12:10:00,
2013-07-04 08:11:00,61.3,60.4,30.03,SSW,205,0.0,0.0,97,0.00,,,0.00,VWS V14.01,2013-07-04 12:11:00,
2013-07-04 08:12:00,61.4,60.5,30.03,SSW,205,0.0,0.0,97,0.00,,,0.00,VWS V14.01,2013-07-04 12:12:00,
2013-07-04 08:13:00,61.4,60.5,30.03,North,0,0.0,0.0,97,0.00,,,0.00,VWS V14.01,2013-07-04 12:13:00,
2013-07-04 08:14:00,61.4,60.5,30.03,North,0,0.0,0.0,97,0.00,,,0.00,VWS V14.01,2013-07-04 12:14:00,
2013-07-04 08:15:00,61.4,60.5,30.03,SSW,202,1.0,6.0,97,0.00,,,0.00,VWS V14.01,2013-07-04 12:15:00,
2013-07-04 08:16:00,61.4,60.5,30.03,SW,225,5.0,7.0,97,0.00,,,0.00,VWS V14.01,2013-07-04 12:16:00,
2013-07-04 08:17:00,61.5,60.6,30.03,SSW,202,1.0,4.0,97,0.00,,,0.00,VWS V14.01,2013-07-04 12:17:00,
2013-07-04 08:18:00,61.5,60.3,30.03,SSW,202,0.0,0.0,96,0.00,,,0.00,VWS V14.01,2013-07-04 12:18:00,
2013-07-04 08:19:00,61.5,60.3,30.03,SSW,202,0.0,0.0,96,0.00,,,0.00,VWS V14.01,2013-07-04 12:19:00,
2013-07-04 08:20:00,61.5,60.3,30.03,SW,225,1.0,4.0,96,0.00,,,0.00,VWS V14.01,2013-07-04 12:20:00,
2013-07-04 08:21:00,61.6,60.5,30.03,SW,225,1.0,3.0,96,0.00,,,0.00,VWS V14.01,2013-07-04 12:21:00,
2013-07-04 08:22:00,61.6,60.5,30.03,SW,225,0.0,0.0,96,0.00,,,0.00,VWS V14.01,2013-07-04 12:22:00,
2013-07-04 08:23:00,61.6,60.5,30.03,SW,225,0.0,0.0,96,0.00,,,0.00,VWS V14.01,2013-07-04 12:23:00,
2013-07-04 08:24:00,61.6,60.5,30.03,SW,225,0.0,0.0,96,0.00,,,0.00,VWS V14.01,2013-07-04 12:24:00,
2013-07-04 08:25:00,61.6,60.5,30.03,SSW,202,2.0,7.0,96,0.00,,,0.00,VWS V14.01,2013-07-04 12:25:00,
2013-07-04 08:26:00,61.7,60.5,30.03,SSW,202,0.0,0.0,96,0.00,,,0.00,VWS V14.01,2013-07-04 12:26:00,
2013-07-04 08:27:00,61.7,60.5,30.03,SSW,202,0.0,0.0,96,0.00,,,0.00,VWS V14.01,2013-07-04 12:27:00,
2013-07-04 08:28:00,61.7,60.5,30.03,SSW,202,0.0,0.0,96,0.00,,,0.00,VWS V14.01,2013-07-04 12:28:00,
2013-07-04 08:29:00,61.7,60.5,30.03,West,270,2.0,6.0,96,0.00,,,0.00,VWS V14.01,2013-07-04 12:29:00,
2013-07-04 08:30:00,61.8,60.7,30.03,SW,225,3.0,6.0,96,0.00,,,0.00,VWS V14.01,2013-07-04 12:30:00,
2013-07-04 08:31:00,61.8,60.9,30.03,SW,225,5.0,8.0,97,0.00,,,0.00,VWS V14.01,2013-07-04 12:31:00,
2013-07-04 08:32:00,61.8,60.9,30.03,SSW,202,4.0,11.0,97,0.00,,,0.00,VWS V14.01,2013-07-04 12:32:00,
2013-07-04 08:33:00,61.9,60.8,30.03,SSW,202,2.0,4.0,96,0.00,,,0.00,VWS V14.01,2013-07-04 12:33:00,
2013-07-04 08:34:00,61.9,61.0,30.03,SSW,202,1.0,6.0,97,0.00,,,0.00,VWS V14.01,2013-07-04 12:34:00,
2013-07-04 08:35:00,62.0,61.1,30.03,SSW,202,1.0,5.0,97,0.00,,,0.00,VWS V14.01,2013-07-04 12:35:00,
2013-07-04 08:36:00,62.0,60.8,30.03,SSW,202,0.0,8.0,96,0.00,,,0.00,VWS V14.01,2013-07-04 12:36:00,
2013-07-04 08:37:00,62.0,60.8,30.03,SW,225,3.0,9.0,96,0.00,,,0.00,VWS V14.01,2013-07-04 12:37:00,
2013-07-04 08:38:00,62.0,60.8,30.03,SW,225,0.0,0.0,96,0.00,,,0.00,VWS V14.01,2013-07-04 12:38:00,
2013-07-04 08:39:00,62.0,60.8,30.04,SSW,202,2.0,6.0,96,0.00,,,0.00,VWS V14.01,2013-07-04 12:39:00,
2013-07-04 08:40:00,62.0,60.8,30.04,SW,225,3.0,7.0,96,0.00,,,0.00,VWS V14.01,2013-07-04 12:40:00,
2013-07-04 08:41:00,62.0,60.8,30.04,SW,225,0.0,0.0,96,0.00,,,0.00,VWS V14.01,2013-07-04 12:41:00,
2013-07-04 08:42:00,62.1,61.0,30.04,SSW,202,2.0,6.0,96,0.00,,,0.00,VWS V14.01,2013-07-04 12:42:00,
2013-07-04 08:43:00,62.1,61.0,30.04,SSW,202,0.0,1.0,96,0.00,,,0.00,VWS V14.01,2013-07-04 12:43:00,
2013-07-04 08:44:00,62.1,61.0,30.04,SSW,202,5.0,8.0,96,0.00,,,0.00,VWS V14.01,2013-07-04 12:44:00,
2013-07-04 08:45:00,62.1,61.0,30.04,SSW,202,6.0,11.0,96,0.00,,,0.00,VWS V14.01,2013-07-04 12:45:00,
2013-07-04 08:46:00,62.1,60.7,30.04,SW,225,5.0,10.0,95,0.00,,,0.00,VWS V14.01,2013-07-04 12:46:00,
2013-07-04 08:47:00,62.1,60.7,30.04,SSW,202,3.0,7.0,95,0.00,,,0.00,VWS V14.01,2013-07-04 12:47:00,
2013-07-04 08:48:00,62.1,60.7,30.04,SSW,202,0.0,0.0,95,0.00,,,0.00,VWS V14.01,2013-07-04 12:48:00,
2013-07-04 08:49:00,62.1,60.7,30.04,SSW,202,4.0,6.0,95,0.00,,,0.00,VWS V14.01,2013-07-04 12:49:00,
2013-07-04 08:59:00,62.4,60.7,30.04,South,180,3.0,8.0,94,0.00,,,0.00,VWS V14.01,2013-07-04 12:59:00,
2013-07-04 09:04:00,62.6,60.8,30.04,SSW,208,0.0,8.0,94,0.00,,,0.00,VWS V14.01,2013-07-04 13:04:00,
2013-07-04 09:09:00,62.7,60.7,30.05,SSW,202,2.0,8.0,93,0.00,,,0.00,VWS V14.01,2013-07-04 13:09:00,
2013-07-04 09:14:00,62.8,60.8,30.04,SSW,194,5.0,8.0,93,0.00,,,0.00,VWS V14.01,2013-07-04 13:14:00,
2013-07-04 09:19:00,62.8,60.5,30.04,South,191,7.0,8.0,92,0.00,,,0.00,VWS V14.01,2013-07-04 13:19:00,
2013-07-04 09:24:00,62.8,60.5,30.05,SSW,201,3.0,8.0,92,0.00,,,0.00,VWS V14.01,2013-07-04 13:24:00,
2013-07-04 09:29:00,62.9,60.5,30.04,SSW,202,3.0,8.0,92,0.00,,,0.00,VWS V14.01,2013-07-04 13:29:00,
2013-07-04 09:35:00,62.9,60.5,30.05,SSW,207,0.0,8.0,92,0.00,,,0.00,VWS V14.01,2013-07-04 13:35:00,
2013-07-04 09:40:00,62.9,60.5,30.04,SW,229,5.0,8.0,92,0.00,,,0.00,VWS V14.01,2013-07-04 13:40:00,
2013-07-04 09:45:00,62.9,60.5,30.05,SSW,206,3.0,8.0,92,0.00,,,0.00,VWS V14.01,2013-07-04 13:45:00,
2013-07-04 09:50:00,62.9,60.5,30.05,SSW,209,0.0,8.0,92,0.00,,,0.00,VWS V14.01,2013-07-04 13:50:00,
2013-07-04 09:55:00,62.9,60.5,30.04,SSW,206,3.0,8.0,92,0.00,,,0.00,VWS V14.01,2013-07-04 13:55:00,
2013-07-04 10:00:00,63.1,60.7,30.04,SW,217,4.0,8.0,92,0.00,,,0.00,VWS V14.01,2013-07-04 14:00:00,
2013-07-04 10:05:00,63.2,60.8,30.04,SSW,202,0.0,8.0,92,0.00,,,0.00,VWS V14.01,2013-07-04 14:05:00,
2013-07-04 10:10:00,63.3,60.6,30.04,SSW,207,0.0,8.0,91,0.00,,,0.00,VWS V14.01,2013-07-04 14:10:00,
2013-07-04 10:15:00,63.4,60.7,30.05,SSW,206,0.0,8.0,91,0.00,,,0.00,VWS V14.01,2013-07-04 14:15:00,
2013-07-04 10:20:00,63.4,60.7,30.04,SSW,196,0.0,8.0,91,0.00,,,0.00,VWS V14.01,2013-07-04 14:20:00,
2013-07-04 10:26:00,63.6,60.9,30.04,South,184,2.0,8.0,91,0.00,,,0.00,VWS V14.01,2013-07-04 14:26:00,
2013-07-04 10:31:00,63.7,61.0,30.04,SW,225,0.0,2.0,91,0.00,,,0.00,VWS V14.01,2013-07-04 14:31:00,
2013-07-04 10:36:00,63.9,60.9,30.04,SW,215,0.0,2.0,90,0.00,,,0.00,VWS V14.01,2013-07-04 14:36:00,
2013-07-04 10:41:00,64.2,61.5,30.04,SSW,194,0.0,2.0,91,0.00,,,0.00,VWS V14.01,2013-07-04 14:41:00,
2013-07-04 10:46:00,64.6,61.6,30.04,SSW,199,0.0,2.0,90,0.00,,,0.00,VWS V14.01,2013-07-04 14:46:00,
2013-07-04 10:51:00,64.9,61.9,30.04,SSW,213,0.0,2.0,90,0.00,,,0.00,VWS V14.01,2013-07-04 14:51:00,
2013-07-04 10:56:00,65.4,61.8,30.04,SW,230,0.0,2.0,88,0.00,,,0.00,VWS V14.01,2013-07-04 14:56:00,
2013-07-04 11:01:00,65.8,62.2,30.04,SW,232,0.0,2.0,88,0.00,,,0.00,VWS V14.01,2013-07-04 15:01:00,
2013-07-04 11:06:00,66.4,62.4,30.04,SW,229,5.0,5.0,87,0.00,,,0.00,VWS V14.01,2013-07-04 15:06:00,
2013-07-04 11:11:00,66.9,62.6,30.04,SW,222,6.0,6.0,86,0.00,,,0.00,VWS V14.01,2013-07-04 15:11:00,
2013-07-04 11:16:00,67.5,62.5,30.04,SW,221,7.0,7.0,84,0.00,,,0.00,VWS V14.01,2013-07-04 15:16:00,
2013-07-04 11:21:00,67.7,62.7,30.04,SW,225,3.0,3.0,84,0.00,,,0.00,VWS V14.01,2013-07-04 15:21:00,
2013-07-04 11:26:00,68.0,62.7,30.04,SW,220,4.0,4.0,83,0.00,,,0.00,VWS V14.01,2013-07-04 15:26:00,
2013-07-04 11:31:00,68.1,62.8,30.04,SW,217,0.0,2.0,83,0.00,,,0.00,VWS V14.01,2013-07-04 15:31:00,
2013-07-04 11:36:00,68.1,62.8,30.04,West,265,0.0,2.0,83,0.00,,,0.00,VWS V14.01,2013-07-04 15:36:00,
2013-07-04 11:41:00,68.0,62.7,30.04,SSW,205,0.0,2.0,83,0.00,,,0.00,VWS V14.01,2013-07-04 15:41:00,
2013-07-04 11:46:00,68.3,62.9,30.04,SW,215,5.0,5.0,83,0.00,,,0.00,VWS V14.01,2013-07-04 15:46:00,
2013-07-04 11:52:00,68.6,62.9,30.04,SSW,209,5.0,5.0,82,0.00,,,0.00,VWS V14.01,2013-07-04 15:52:00,
2013-07-04 11:57:00,68.9,63.2,30.04,SSW,200,0.0,2.0,82,0.00,,,0.00,VWS V14.01,2013-07-04 15:57:00,
2013-07-04 12:02:00,69.3,63.6,30.04,South,190,2.0,2.0,82,0.00,,,0.00,VWS V14.01,2013-07-04 16:02:00,
2013-07-04 12:07:00,69.7,63.6,30.04,SW,229,0.0,2.0,81,0.00,,,0.00,VWS V14.01,2013-07-04 16:07:00,
2013-07-04 12:12:00,70.2,63.8,30.04,SW,218,7.0,7.0,80,0.00,,,0.00,VWS V14.01,2013-07-04 16:12:00,
2013-07-04 12:17:00,71.2,64.0,30.04,SSW,203,0.0,2.0,78,0.00,,,0.00,VWS V14.01,2013-07-04 16:17:00,
2013-07-04 12:22:00,71.7,63.7,30.04,SSW,198,0.0,2.0,76,0.00,,,0.00,VWS V14.01,2013-07-04 16:22:00,
2013-07-04 12:27:00,72.0,64.0,30.03,SW,217,0.0,2.0,76,0.00,,,0.00,VWS V14.01,2013-07-04 16:27:00,
2013-07-04 12:32:00,71.9,63.5,30.03,SSW,203,0.0,2.0,75,0.00,,,0.00,VWS V14.01,2013-07-04 16:32:00,
2013-07-04 12:37:00,72.1,64.1,30.03,SSW,207,0.0,2.0,76,0.00,,,0.00,VWS V14.01,2013-07-04 16:37:00,
2013-07-04 12:42:00,72.4,64.0,30.03,SW,216,4.0,4.0,75,0.00,,,0.00,VWS V14.01,2013-07-04 16:42:00,
2013-07-04 12:47:00,72.8,63.7,30.03,SSE,155,0.0,2.0,73,0.00,,,0.00,VWS V14.01,2013-07-04 16:47:00,
2013-07-04 12:52:00,73.3,63.7,30.02,South,174,0.0,2.0,72,0.00,,,0.00,VWS V14.01,2013-07-04 16:52:00,
2013-07-04 12:57:00,74.1,64.5,30.02,SSW,200,2.0,2.0,72,0.00,,,0.00,VWS V14.01,2013-07-04 16:57:00,
2013-07-04 13:03:00,74.7,64.3,30.03,SSW,203,9.0,9.0,70,0.00,,,0.00,VWS V14.01,2013-07-04 17:03:00,
2013-07-04 13:08:00,75.1,64.2,30.02,SW,236,0.0,2.0,69,0.00,,,0.00,VWS V14.01,2013-07-04 17:08:00,
2013-07-04 13:13:00,75.1,64.2,30.02,West,260,0.0,2.0,69,0.00,,,0.00,VWS V14.01,2013-07-04 17:13:00,
2013-07-04 13:18:00,75.1,64.2,30.03,SSW,204,0.0,2.0,69,0.00,,,0.00,VWS V14.01,2013-07-04 17:18:00,
2013-07-04 13:23:00,75.6,64.3,30.03,SW,221,1.0,2.0,68,0.00,,,0.00,VWS V14.01,2013-07-04 17:23:00,
2013-07-04 13:28:00,75.6,64.3,30.02,WSW,238,0.0,2.0,68,0.00,,,0.00,VWS V14.01,2013-07-04 17:28:00,
2013-07-04 13:33:00,75.4,64.5,30.03,SW,217,3.0,3.0,69,0.00,,,0.00,VWS V14.01,2013-07-04 17:33:00,
2013-07-04 13:38:00,75.6,64.3,30.03,SSE,167,5.0,5.0,68,0.00,,,0.00,VWS V14.01,2013-07-04 17:38:00,
2013-07-04 13:43:00,75.7,64.0,30.02,SSE,167,0.0,2.0,67,0.00,,,0.00,VWS V14.01,2013-07-04 17:43:00,
2013-07-04 13:48:00,76.2,65.7,30.02,SW,236,0.0,2.0,70,0.00,,,0.00,VWS V14.01,2013-07-04 17:48:00,
2013-07-04 13:53:00,77.1,64.9,30.02,SW,225,0.0,2.0,66,0.00,,,0.00,VWS V14.01,2013-07-04 17:53:00,
2013-07-04 13:58:00,76.9,63.8,30.02,SW,223,11.0,11.0,64,0.00,,,0.00,VWS V14.01,2013-07-04 17:58:00,
2013-07-04 14:03:00,76.5,64.3,30.02,SSW,211,0.0,2.0,66,0.00,,,0.00,VWS V14.01,2013-07-04 18:03:00,
2013-07-04 14:08:00,77.2,64.5,30.02,SW,229,5.0,5.0,65,0.00,,,0.00,VWS V14.01,2013-07-04 18:08:00,
2013-07-04 14:14:00,77.3,64.2,30.02,SSE,148,0.0,2.0,64,0.00,,,0.00,VWS V14.01,2013-07-04 18:14:00,
2013-07-04 14:19:00,77.3,64.2,30.02,SSE,154,0.0,2.0,64,0.00,,,0.00,VWS V14.01,2013-07-04 18:19:00,
2013-07-04 14:24:00,77.5,64.4,30.02,SW,230,0.0,2.0,64,0.00,,,0.00,VWS V14.01,2013-07-04 18:24:00,
2013-07-04 14:29:00,77.7,63.2,30.02,SSW,192,10.0,10.0,61,0.00,,,0.00,VWS V14.01,2013-07-04 18:29:00,
2013-07-04 14:34:00,77.3,63.3,30.01,SW,218,0.0,2.0,62,0.00,,,0.00,VWS V14.01,2013-07-04 18:34:00,
2013-07-04 14:39:00,77.1,64.0,30.01,SSW,200,9.0,9.0,64,0.00,,,0.00,VWS V14.01,2013-07-04 18:39:00,
2013-07-04 14:44:00,77.4,63.4,30.01,South,191,8.0,8.0,62,0.00,,,0.00,VWS V14.01,2013-07-04 18:44:00,
2013-07-04 14:49:00,77.7,63.7,30.01,SSW,206,8.0,8.0,62,0.00,,,0.00,VWS V14.01,2013-07-04 18:49:00,
2013-07-04 14:54:00,77.6,62.6,30.01,South,189,7.0,7.0,60,0.00,,,0.00,VWS V14.01,2013-07-04 18:54:00,
2013-07-04 14:59:00,77.1,62.6,30.01,SSE,155,1.0,2.0,61,0.00,,,0.00,VWS V14.01,2013-07-04 18:59:00,
2013-07-04 15:04:00,77.1,63.5,30.01,SSW,205,0.0,2.0,63,0.00,,,0.00,VWS V14.01,2013-07-04 19:04:00,
2013-07-04 15:09:00,78.2,64.1,30.01,SW,221,6.0,6.0,62,0.00,,,0.00,VWS V14.01,2013-07-04 19:09:00,
2013-07-04 15:14:00,79.0,63.0,30.01,South,178,10.0,10.0,58,0.00,,,0.00,VWS V14.01,2013-07-04 19:14:00,
2013-07-04 15:19:00,79.3,63.7,30.01,SW,217,3.0,3.0,59,0.00,,,0.00,VWS V14.01,2013-07-04 19:19:00,
2013-07-04 15:24:00,79.9,63.8,30.01,SSE,167,1.0,2.0,58,0.00,,,0.00,VWS V14.01,2013-07-04 19:24:00,
2013-07-04 15:29:00,80.0,62.4,30.01,SW,217,6.0,6.0,55,0.00,,,0.00,VWS V14.01,2013-07-04 19:29:00,
2013-07-04 15:34:00,79.2,63.2,30.01,SSW,211,0.0,2.0,58,0.00,,,0.00,VWS V14.01,2013-07-04 19:34:00,
2013-07-04 15:39:00,79.3,62.8,30.00,SSW,192,10.0,10.0,57,0.00,,,0.00,VWS V14.01,2013-07-04 19:39:00,
2013-07-04 15:44:00,79.2,62.7,30.01,SSW,207,15.0,15.0,57,0.00,,,0.00,VWS V14.01,2013-07-04 19:44:00,
2013-07-04 15:49:00,78.9,62.4,30.01,SW,234,6.0,6.0,57,0.00,,,0.00,VWS V14.01,2013-07-04 19:49:00,
2013-07-04 15:54:00,79.0,63.5,30.00,SW,221,13.0,13.0,59,0.00,,,0.00,VWS V14.01,2013-07-04 19:54:00,
2013-07-04 16:00:00,79.4,62.9,30.00,SSW,196,10.0,10.0,57,0.00,,,0.00,VWS V14.01,2013-07-04 20:00:00,
2013-07-04 16:05:00,79.8,63.2,30.00,WSW,254,0.0,2.0,57,0.00,,,0.00,VWS V14.01,2013-07-04 20:05:00,
2013-07-04 16:10:00,80.3,63.2,30.00,WSW,240,6.0,6.0,56,0.00,,,0.00,VWS V14.01,2013-07-04 20:10:00,
2013-07-04 16:15:00,80.6,64.0,30.00,SSW,202,0.0,2.0,57,0.00,,,0.00,VWS V14.01,2013-07-04 20:15:00,
2013-07-04 16:20:00,80.3,62.2,30.00,SSW,200,10.0,10.0,54,0.00,,,0.00,VWS V14.01,2013-07-04 20:20:00,
2013-07-04 16:25:00,80.3,63.2,30.00,West,273,0.0,2.0,56,0.00,,,0.00,VWS V14.01,2013-07-04 20:25:00,
2013-07-04 16:30:00,80.5,62.9,30.00,SW,219,4.0,4.0,55,0.00,,,0.00,VWS V14.01,2013-07-04 20:30:00,
2013-07-04 16:35:00,80.6,63.5,30.00,South,169,0.0,2.0,56,0.00,,,0.00,VWS V14.01,2013-07-04 20:35:00,
2013-07-04 16:40:00,80.7,62.5,30.00,SW,225,5.0,5.0,54,0.00,,,0.00,VWS V14.01,2013-07-04 20:40:00,
2013-07-04 16:46:00,80.4,62.2,30.00,SSW,210,7.0,7.0,54,0.00,,,0.00,VWS V14.01,2013-07-04 20:46:00,
2013-07-04 16:51:00,80.4,63.8,30.00,South,191,3.0,3.0,57,0.00,,,0.00,VWS V14.01,2013-07-04 20:51:00,
2013-07-04 16:56:00,80.8,64.7,30.00,SW,216,0.0,2.0,58,0.00,,,0.00,VWS V14.01,2013-07-04 20:56:00,
2013-07-04 17:01:00,80.9,64.2,30.00,WNW,284,0.0,2.0,57,0.00,,,0.00,VWS V14.01,2013-07-04 21:01:00,
2013-07-04 17:06:00,80.6,64.0,30.00,South,190,4.0,4.0,57,0.00,,,0.00,VWS V14.01,2013-07-04 21:06:00,
2013-07-04 17:11:00,80.0,63.4,30.00,SW,223,0.0,2.0,57,0.00,,,0.00,VWS V14.01,2013-07-04 21:11:00,
2013-07-04 17:16:00,79.4,63.3,30.00,NW,313,0.0,2.0,58,0.00,,,0.00,VWS V14.01,2013-07-04 21:16:00,
2013-07-04 17:21:00,78.7,63.7,30.00,SW,228,0.0,2.0,60,0.00,,,0.00,VWS V14.01,2013-07-04 21:21:00,
2013-07-04 17:26:00,78.5,63.5,30.00,West,275,0.0,2.0,60,0.00,,,0.00,VWS V14.01,2013-07-04 21:26:00,
2013-07-04 17:31:00,78.1,63.6,30.01,NW,315,1.0,2.0,61,0.00,,,0.00,VWS V14.01,2013-07-04 21:31:00,
2013-07-04 17:36:00,77.2,62.7,30.01,SSW,208,1.0,2.0,61,0.00,,,0.00,VWS V14.01,2013-07-04 21:36:00,
2013-07-04 17:41:00,76.2,62.7,30.00,NW,313,0.0,2.0,63,0.00,,,0.00,VWS V14.01,2013-07-04 21:41:00,
2013-07-04 17:46:00,75.3,62.7,30.00,SSW,206,0.0,2.0,65,0.00,,,0.00,VWS V14.01,2013-07-04 21:46:00,
2013-07-04 17:51:00,74.7,62.6,30.00,SW,229,0.0,2.0,66,0.00,,,0.00,VWS V14.01,2013-07-04 21:51:00,
2013-07-04 17:56:00,74.3,62.2,30.00,SW,232,3.0,3.0,66,0.00,,,0.00,VWS V14.01,2013-07-04 21:56:00,
2013-07-04 18:01:00,73.8,62.2,30.00,SW,217,0.0,2.0,67,0.00,,,0.00,VWS V14.01,2013-07-04 22:01:00,
2013-07-04 18:06:00,73.5,61.9,30.00,SSW,213,0.0,2.0,67,0.00,,,0.00,VWS V14.01,2013-07-04 22:06:00,
2013-07-04 18:11:00,73.1,62.3,30.00,WSW,244,0.0,2.0,69,0.00,,,0.00,VWS V14.01,2013-07-04 22:11:00,
2013-07-04 18:16:00,73.0,62.2,30.00,SW,224,0.0,2.0,69,0.00,,,0.00,VWS V14.01,2013-07-04 22:16:00,
2013-07-04 18:22:00,72.9,62.1,30.00,WSW,255,0.0,2.0,69,0.00,,,0.00,VWS V14.01,2013-07-04 22:22:00,
2013-07-04 18:27:00,73.2,62.4,30.00,SW,225,0.0,2.0,69,0.00,,,0.00,VWS V14.01,2013-07-04 22:27:00,
2013-07-04 18:32:00,73.7,62.9,30.00,SW,225,0.0,2.0,69,0.00,,,0.00,VWS V14.01,2013-07-04 22:32:00,
2013-07-04 18:37:00,74.1,62.0,30.00,SW,215,0.0,2.0,66,0.00,,,0.00,VWS V14.01,2013-07-04 22:37:00,
2013-07-04 18:42:00,74.2,61.7,30.00,West,270,0.0,2.0,65,0.00,,,0.00,VWS V14.01,2013-07-04 22:42:00,
2013-07-04 18:47:00,74.3,61.8,30.00,West,263,0.0,2.0,65,0.00,,,0.00,VWS V14.01,2013-07-04 22:47:00,
2013-07-04 18:52:00,74.3,61.3,30.00,SW,224,3.0,3.0,64,0.00,,,0.00,VWS V14.01,2013-07-04 22:52:00,
2013-07-04 18:57:00,73.9,61.8,30.00,WSW,252,0.0,2.0,66,0.00,,,0.00,VWS V14.01,2013-07-04 22:57:00,
2013-07-04 19:02:00,73.8,61.3,30.00,WNW,288,0.0,2.0,65,0.00,,,0.00,VWS V14.01,2013-07-04 23:02:00,
2013-07-04 19:07:00,73.9,61.4,30.00,West,279,0.0,2.0,65,0.00,,,0.00,VWS V14.01,2013-07-04 23:07:00,
2013-07-04 19:12:00,73.9,61.4,30.00,WSW,247,0.0,2.0,65,0.00,,,0.00,VWS V14.01,2013-07-04 23:12:00,
2013-07-04 19:17:00,73.9,61.4,30.00,West,264,0.0,2.0,65,0.00,,,0.00,VWS V14.01,2013-07-04 23:17:00,
2013-07-04 19:22:00,74.0,61.9,30.00,West,273,0.0,2.0,66,0.00,,,0.00,VWS V14.01,2013-07-04 23:22:00,
2013-07-04 19:27:00,74.2,61.7,29.99,WSW,238,0.0,2.0,65,0.00,,,0.00,VWS V14.01,2013-07-04 23:27:00,
2013-07-04 19:32:00,74.3,60.9,29.99,SW,234,0.0,2.0,63,0.00,,,0.00,VWS V14.01,2013-07-04 23:32:00,
2013-07-04 19:37:00,74.1,60.3,29.99,SW,226,0.0,2.0,62,0.00,,,0.00,VWS V14.01,2013-07-04 23:37:00,
2013-07-04 19:42:00,73.9,59.6,29.99,WSW,243,3.0,3.0,61,0.00,,,0.00,VWS V14.01,2013-07-04 23:42:00,
2013-07-04 19:48:00,74.0,60.2,29.99,SW,221,0.0,2.0,62,0.00,,,0.00,VWS V14.01,2013-07-04 23:48:00,
2013-07-04 19:53:00,74.4,60.1,29.99,SW,215,0.0,2.0,61,0.00,,,0.00,VWS V14.01,2013-07-04 23:53:00,
2013-07-04 19:58:00,74.5,59.7,29.99,SW,215,7.0,7.0,60,0.00,,,0.00,VWS V14.01,2013-07-04 23:58:00,
2013-07-04 20:03:00,74.3,60.0,29.99,SW,224,0.0,2.0,61,0.00,,,0.00,VWS V14.01,2013-07-05 00:03:00,
2013-07-04 20:08:00,74.0,59.7,29.99,SW,215,0.0,2.0,61,0.00,,,0.00,VWS V14.01,2013-07-05 00:08:00,
2013-07-04 20:13:00,73.6,59.8,29.99,SW,215,0.0,2.0,62,0.00,,,0.00,VWS V14.01,2013-07-05 00:13:00,
2013-07-04 20:18:00,73.4,60.0,29.99,SW,215,0.0,2.0,63,0.00,,,0.00,VWS V14.01,2013-07-05 00:18:00,
2013-07-04 20:23:00,73.2,60.3,29.98,SSW,198,0.0,2.0,64,0.00,,,0.00,VWS V14.01,2013-07-05 00:23:00,
2013-07-04 20:28:00,72.8,60.8,29.98,SSW,200,0.0,2.0,66,0.00,,,0.00,VWS V14.01,2013-07-05 00:28:00,
2013-07-04 20:33:00,72.5,59.6,29.98,SSW,203,0.0,2.0,64,0.00,,,0.00,VWS V14.01,2013-07-05 00:33:00,
2013-07-04 20:38:00,72.3,59.9,29.98,SW,236,0.0,2.0,65,0.00,,,0.00,VWS V14.01,2013-07-05 00:38:00,
2013-07-04 20:43:00,72.0,60.0,29.98,SW,219,0.0,2.0,66,0.00,,,0.00,VWS V14.01,2013-07-05 00:43:00,
2013-07-04 20:48:00,71.7,59.8,29.98,SSW,200,0.0,2.0,66,0.00,,,0.00,VWS V14.01,2013-07-05 00:48:00,
2013-07-04 20:53:00,71.4,59.9,29.99,SSW,200,0.0,2.0,67,0.00,,,0.00,VWS V14.01,2013-07-05 00:53:00,
2013-07-04 20:58:00,71.1,60.0,29.98,SSW,200,0.0,2.0,68,0.00,,,0.00,VWS V14.01,2013-07-05 00:58:00,
2013-07-04 21:03:00,70.8,60.1,29.98,SSW,200,0.0,2.0,69,0.00,,,0.00,VWS V14.01,2013-07-05 01:03:00,
2013-07-04 21:08:00,70.6,60.0,29.99,SSW,198,0.0,2.0,69,0.00,,,0.00,VWS V14.01,2013-07-05 01:08:00,
2013-07-04 21:13:00,70.2,60.4,29.99,SSW,205,0.0,2.0,71,0.00,,,0.00,VWS V14.01,2013-07-05 01:13:00,
2013-07-04 21:18:00,69.9,60.5,29.98,SSW,205,0.0,2.0,72,0.00,,,0.00,VWS V14.01,2013-07-05 01:18:00,
2013-07-04 21:24:00,69.5,60.1,29.99,SSW,205,0.0,2.0,72,0.00,,,0.00,VWS V14.01,2013-07-05 01:24:00,
2013-07-04 21:29:00,69.2,60.2,29.99,SSW,205,0.0,2.0,73,0.00,,,0.00,VWS V14.01,2013-07-05 01:29:00,
2013-07-04 21:34:00,68.8,60.2,29.99,SSW,205,0.0,2.0,74,0.00,,,0.00,VWS V14.01,2013-07-05 01:34:00,
2013-07-04 21:39:00,68.5,59.9,29.99,SSW,205,0.0,2.0,74,0.00,,,0.00,VWS V14.01,2013-07-05 01:39:00,
2013-07-04 21:44:00,68.2,60.0,29.99,SSW,205,0.0,2.0,75,0.00,,,0.00,VWS V14.01,2013-07-05 01:44:00,
2013-07-04 21:49:00,67.9,59.7,29.99,SSW,205,0.0,2.0,75,0.00,,,0.00,VWS V14.01,2013-07-05 01:49:00,
2013-07-04 21:54:00,67.4,59.6,29.99,SSW,205,0.0,2.0,76,0.00,,,0.00,VWS V14.01,2013-07-05 01:54:00,
2013-07-04 21:59:00,67.0,59.2,29.99,SSW,201,0.0,2.0,76,0.00,,,0.00,VWS V14.01,2013-07-05 01:59:00,
2013-07-04 22:04:00,66.5,59.1,29.99,SSW,202,0.0,2.0,77,0.00,,,0.00,VWS V14.01,2013-07-05 02:04:00,
2013-07-04 22:09:00,66.1,59.0,29.99,SSW,202,0.0,2.0,78,0.00,,,0.00,VWS V14.01,2013-07-05 02:09:00,
2013-07-04 22:14:00,65.7,58.7,30.00,SSW,202,0.0,2.0,78,0.00,,,0.00,VWS V14.01,2013-07-05 02:14:00,
2013-07-04 22:19:00,65.2,58.5,30.00,SSW,202,0.0,2.0,79,0.00,,,0.00,VWS V14.01,2013-07-05 02:19:00,
2013-07-04 22:24:00,64.9,58.6,30.00,SSW,202,0.0,2.0,80,0.00,,,0.00,VWS V14.01,2013-07-05 02:24:00,
2013-07-04 22:30:00,64.5,58.5,30.00,SSW,202,0.0,2.0,81,0.00,,,0.00,VWS V14.01,2013-07-05 02:30:00,
2013-07-04 22:35:00,64.1,58.5,30.00,SSW,202,0.0,2.0,82,0.00,,,0.00,VWS V14.01,2013-07-05 02:35:00,
2013-07-04 22:40:00,63.7,58.1,30.00,SSW,202,0.0,2.0,82,0.00,,,0.00,VWS V14.01,2013-07-05 02:40:00,
2013-07-04 22:45:00,63.3,58.1,30.00,SSW,202,0.0,2.0,83,0.00,,,0.00,VWS V14.01,2013-07-05 02:45:00,
2013-07-04 22:50:00,62.9,58.0,30.01,SSW,202,0.0,2.0,84,0.00,,,0.00,VWS V14.01,2013-07-05 02:50:00,
2013-07-04 22:55:00,62.6,57.7,30.00,SSW,202,0.0,2.0,84,0.00,,,0.00,VWS V14.01,2013-07-05 02:55:00,
2013-07-04 23:00:00,62.2,57.6,30.01,SSW,202,0.0,2.0,85,0.00,,,0.00,VWS V14.01,2013-07-05 03:00:00,
2013-07-04 23:05:00,61.9,57.3,30.01,SSW,202,0.0,2.0,85,0.00,,,0.00,VWS V14.01,2013-07-05 03:05:00,
2013-07-04 23:10:00,61.6,57.4,30.01,SSW,202,0.0,2.0,86,0.00,,,0.00,VWS V14.01,2013-07-05 03:10:00,
2013-07-04 23:15:00,61.4,57.5,30.01,SSW,203,0.0,2.0,87,0.00,,,0.00,VWS V14.01,2013-07-05 03:15:00,
2013-07-04 23:20:00,61.1,57.2,30.01,SSW,202,0.0,2.0,87,0.00,,,0.00,VWS V14.01,2013-07-05 03:20:00,
2013-07-04 23:25:00,60.9,57.0,30.01,SSW,202,0.0,2.0,87,0.00,,,0.00,VWS V14.01,2013-07-05 03:25:00,
2013-07-04 23:30:00,60.8,57.2,30.01,SSW,203,0.0,2.0,88,0.00,,,0.00,VWS V14.01,2013-07-05 03:30:00,
2013-07-04 23:35:00,60.6,57.0,30.01,SSW,203,0.0,2.0,88,0.00,,,0.00,VWS V14.01,2013-07-05 03:35:00,
2013-07-04 23:40:00,60.5,57.2,30.00,SSW,203,0.0,2.0,89,0.00,,,0.00,VWS V14.01,2013-07-05 03:40:00,
2013-07-04 23:45:00,60.4,57.2,30.00,SSW,203,0.0,2.0,89,0.00,,,0.00,VWS V14.01,2013-07-05 03:45:00,
2013-07-04 23:50:00,60.4,57.5,30.00,SSW,203,0.0,2.0,90,0.00,,,0.00,VWS V14.01,2013-07-05 03:50:00,
2013-07-04 23:55:00,60.4,57.5,30.01,SSW,203,0.0,2.0,90,0.00,,,0.00,VWS V14.01,2013-07-05 03:55:00,